GFSNE_sfc_dewp_000.txt.gz
Dewpoint
18 19 19 21 22 20 21 22 21 20 19 18 19 20 24 23 24 21 22 29 31 33 33 33 33 34 35 36 36 36 37 38 38 40 38 39 41 42
17 16 17 19 20 22 22 23 24 22 20 21 20 21 21 20 24 24 24 30 32 33 32 31 31 32 34 34 35 37 36 34 35 37 38 38 38 41
16 19 20 22 22 22 24 24 23 23 22 21 21 22 22 24 25 25 27 28 27 30 31 31 31 31 33 32 31 32 33 34 35 37 37 38 38 39
17 21 23 21 22 23 24 23 23 23 23 21 24 26 26 26 28 30 27 23 22 26 29 30 29 29 29 30 30 31 35 36 34 34 35 37 39 40
19 21 23 21 21 23 23 24 24 24 25 25 23 23 24 29 25 21 19 18 17 24 28 29 29 30 31 32 36 32 30 31 31 32 33 33 34 36
22 23 23 22 22 23 22 23 21 21 22 23 26 25 30 24 21 18 17 19 19 20 26 28 29 30 30 29 29 29 29 30 31 32 32 33 35 37
21 22 22 24 27 25 21 22 22 24 29 28 24 25 24 19 18 18 18 19 22 28 22 21 23 23 23 27 27 28 29 31 32 35 34 33 34 36
19 21 21 26 25 27 28 28 27 24 24 26 27 22 20 19 19 19 22 25 17 20 20 21 22 21 23 24 28 29 29 29 31 30 32 34 34 36
21 22 21 20 25 23 27 29 28 29 33 24 21 20 20 21 26 25 22 21 21 22 22 21 21 21 21 20 27 28 28 29 30 32 34 34 34 34
21 21 22 22 24 24 22 24 29 25 22 19 19 23 26 22 19 20 24 24 24 21 21 19 19 18 20 21 27 28 29 29 31 34 36 38 38 38
20 21 22 22 26 28 29 29 20 17 19 26 27 25 24 24 24 24 23 21 18 17 18 19 19 20 20 21 22 27 29 29 29 32 34 34 34 35
21 22 27 25 29 34 23 18 17 17 22 20 16 18 20 20 25 23 24 20 19 17 17 20 20 21 20 21 23 23 24 28 29 31 32 34 36 33
23 25 24 29 30 25 23 16 18 20 20 16 16 18 19 20 20 22 24 24 20 19 21 24 23 22 22 21 21 20 21 25 24 25 31 34 36 36
24 21 28 26 23 22 20 23 24 22 16 18 18 18 19 20 22 22 24 24 25 24 25 26 24 24 23 21 18 18 18 22 24 26 28 32 35 37
23 28 24 22 21 19 21 22 22 18 19 20 19 19 21 22 23 23 24 24 24 25 27 27 25 24 24 21 20 18 19 21 25 28 30 31 32 33
24 21 19 19 20 19 17 17 16 17 20 21 20 20 19 20 21 23 22 21 22 22 25 27 27 26 22 20 20 18 20 21 26 29 31 32 33 34
21 15 13 14 15 15 15 16 17 18 20 20 20 19 18 19 20 21 22 22 20 22 22 24 25 25 23 20 19 21 22 25 29 31 32 32 33 34
16 13 14 15 16 15 15 16 18 19 19 20 19 19 19 20 19 21 21 22 22 22 23 23 23 22 20 22 25 21 28 28 30 32 32 31 31 33
14 15 16 16 16 16 18 18 18 18 19 18 18 20 20 18 19 19 20 22 21 23 23 23 22 21 18 18 23 30 29 30 30 30 32 32 31 32
15 15 15 16 17 18 18 18 18 18 17 18 20 18 19 19 18 19 20 21 22 22 22 23 23 23 20 20 20 24 33 31 31 31 31 33 34 36
14 15 16 18 18 18 18 18 18 18 19 18 18 19 19 20 19 19 21 24 24 21 20 22 24 31 27 27 25 26 30 34 34 32 32 29 31 32
14 16 17 18 18 18 18 18 17 17 17 17 18 19 20 21 20 21 23 21 21 21 22 23 25 26 26 25 24 25 27 31 34 36 36 34 32 29
17 18 18 18 18 18 18 17 17 16 17 17 18 19 20 20 21 24 24 22 22 21 20 22 23 24 25 24 24 25 27 29 29 30 32 36 36 36

GFSNE_sfc_dewp_003.txt.gz
Dewpoint
18 18 17 20 21 22 22 22 21 19 19 19 19 22 23 25 26 23 23 29 31 33 34 34 33 34 35 35 35 36 36 40 40 40 42 41 40 42
17 16 17 20 22 24 23 23 24 23 21 22 22 23 23 22 26 24 25 30 32 33 32 31 31 31 32 33 34 37 38 38 39 40 40 41 39 39
17 18 20 22 23 22 23 24 24 24 22 23 24 25 25 25 25 26 28 31 28 31 30 29 29 30 31 32 34 35 35 36 35 36 36 38 39 40
17 20 22 21 22 22 23 23 24 24 24 25 25 22 21 22 24 30 28 22 21 24 28 28 29 30 31 32 32 33 33 35 38 40 39 38 39 39
19 20 21 22 22 22 22 23 24 25 24 22 21 23 25 26 26 25 20 19 17 24 27 28 29 31 30 30 31 32 34 32 31 33 34 34 34 35
20 22 22 23 22 22 22 22 23 22 23 24 26 27 23 27 26 19 17 19 19 19 24 29 28 27 28 29 29 28 28 29 30 31 31 32 32 34
18 20 21 24 26 25 22 23 22 22 25 28 23 26 22 19 17 19 19 20 23 26 19 19 20 21 22 26 26 27 28 29 31 33 34 34 34 36
18 20 21 25 25 26 27 27 26 24 25 27 25 20 18 18 19 21 24 21 18 20 20 20 21 20 21 22 27 28 28 29 29 30 31 32 33 36
20 21 20 20 25 23 27 29 31 34 28 24 18 18 18 21 26 24 22 23 21 21 22 20 20 19 20 20 27 28 29 29 29 31 33 33 34 34
21 21 20 21 23 24 28 29 25 22 20 17 19 22 25 22 20 20 23 25 24 20 19 18 19 18 19 20 27 28 29 29 30 30 31 32 34 36
20 21 21 24 27 31 25 22 18 17 19 26 27 25 24 25 24 24 22 20 17 16 18 18 18 19 19 20 21 28 28 28 28 29 29 30 32 32
21 22 28 25 28 28 21 18 17 17 25 23 16 18 20 20 25 21 24 20 19 17 17 20 20 21 20 20 22 21 22 26 27 28 29 32 33 32
22 20 22 29 26 25 24 17 19 23 21 16 17 18 19 18 19 21 24 23 20 19 20 23 22 21 20 20 20 20 20 22 22 23 27 31 33 34
21 23 27 26 24 23 21 24 24 22 16 17 18 18 18 20 21 22 23 24 25 24 25 25 22 22 21 20 18 19 20 22 23 22 24 29 33 36
24 24 25 23 21 19 22 23 22 17 17 19 18 18 19 21 22 22 23 23 23 24 26 26 25 24 24 21 20 20 21 21 23 24 27 29 30 30
23 20 19 19 20 19 17 16 16 16 18 19 18 18 18 19 19 21 21 20 21 21 24 26 28 26 23 23 23 20 22 21 24 26 29 32 33 33
21 15 13 14 15 15 15 15 16 17 18 18 18 18 17 18 19 20 21 21 20 20 22 24 25 25 25 24 21 23 25 25 29 31 32 32 33 33
17 13 14 15 15 15 15 16 16 18 18 18 18 17 17 18 18 19 20 20 20 21 22 23 23 22 22 25 27 23 27 30 32 32 32 31 31 33
14 14 15 15 16 16 17 17 17 17 18 18 17 18 19 17 18 18 19 19 19 22 23 24 23 21 19 20 25 31 27 31 32 32 32 31 31 32
14 14 15 16 16 17 17 17 17 17 17 17 19 18 17 18 18 18 19 19 22 22 21 23 23 23 22 21 22 26 32 31 31 31 31 32 33 35
14 15 16 17 17 17 17 17 17 17 19 18 17 18 18 18 17 18 20 23 24 21 20 22 25 31 28 28 25 25 31 34 34 31 31 31 31 30
15 16 16 17 17 17 16 16 16 16 15 16 16 18 18 19 19 19 20 21 21 21 21 24 26 26 24 22 23 26 28 29 34 35 35 34 30 27
16 16 16 16 16 16 16 16 16 16 16 17 17 18 19 19 20 21 22 24 22 22 20 21 24 24 24 23 24 24 24 26 28 30 31 36 35 35

GFSNE_sfc_dewp_006.txt.gz
Dewpoint
18 18 18 19 21 22 23 23 21 17 16 19 20 22 24 25 26 24 24 30 32 32 34 34 35 34 34 35 34 35 36 36 37 38 41 41 41 43
18 17 17 20 21 24 24 24 23 22 21 20 22 23 25 24 26 25 25 30 31 33 34 33 31 31 31 32 32 33 34 36 38 39 40 41 43 43
18 19 19 20 23 24 24 23 23 24 22 22 23 24 23 21 21 23 25 25 28 36 32 30 29 29 30 31 32 34 36 35 37 38 38 39 40 41
19 20 20 19 22 23 23 22 23 24 23 22 24 22 21 22 23 26 24 27 27 26 28 28 29 29 30 31 33 33 34 33 35 35 36 38 39 39
19 19 20 21 21 22 22 22 23 23 25 24 21 22 23 26 25 26 26 23 18 24 27 27 28 29 30 31 30 31 31 32 34 33 35 35 35 36
19 20 20 21 21 22 22 22 22 21 21 21 22 25 26 27 23 18 16 19 19 19 25 26 28 28 28 28 28 28 28 28 29 30 31 31 32 33
19 19 20 23 26 24 21 21 21 22 24 27 27 25 21 17 16 18 18 20 22 21 19 19 20 20 21 26 25 27 27 29 29 31 33 34 34 34
19 20 21 24 23 28 28 28 28 31 26 23 22 18 16 17 18 20 24 21 18 21 20 22 22 20 20 20 25 27 28 29 29 30 31 32 32 33
21 21 21 20 25 22 27 29 32 28 25 20 17 16 17 21 26 24 22 22 20 21 22 21 20 18 19 18 25 27 28 29 29 31 32 32 32 32
21 21 21 21 22 25 27 29 23 21 19 17 19 22 26 22 20 20 23 24 23 19 19 19 19 17 18 19 26 27 28 28 29 31 32 32 33 34
21 21 22 23 27 29 26 23 19 18 20 25 28 25 25 26 25 23 22 20 17 16 17 17 17 18 18 19 20 26 26 27 27 28 29 29 30 31
22 23 26 24 27 30 23 18 18 17 24 24 16 18 20 20 25 21 22 19 19 17 16 19 19 20 19 18 20 20 20 26 27 28 29 30 30 28
19 22 23 27 27 25 24 17 19 24 21 16 16 17 18 18 18 20 22 22 20 19 20 23 22 20 20 19 19 20 20 21 23 24 28 30 33 33
23 23 22 26 24 23 21 24 25 22 16 16 17 17 17 18 20 21 21 22 24 24 25 25 22 22 20 19 18 20 21 24 25 25 26 29 32 34
22 24 25 23 21 19 22 23 22 16 17 18 18 17 18 19 20 20 21 22 22 23 24 24 24 24 23 22 21 21 24 24 25 26 27 27 27 28
23 20 20 19 20 19 17 16 16 16 18 19 17 17 17 18 18 19 20 19 20 20 23 24 25 26 23 23 23 22 25 23 26 28 30 31 32 34
21 16 13 14 15 14 14 15 15 16 17 17 17 16 16 17 17 19 20 20 18 18 20 23 25 26 26 25 23 25 26 27 31 32 32 32 32 34
17 13 14 15 15 14 15 15 16 17 17 17 17 17 17 17 18 19 19 19 18 19 21 23 23 23 23 25 28 25 28 29 32 32 32 31 30 33
14 14 15 15 15 16 16 17 16 16 17 17 17 17 19 17 17 17 17 18 18 20 22 22 23 23 20 19 25 28 28 30 31 31 31 31 31 31
14 14 15 15 16 16 17 16 16 16 16 16 18 18 16 17 16 16 17 18 20 22 20 22 22 23 24 22 23 26 31 30 30 30 30 32 32 34
14 15 15 15 16 17 16 16 16 16 18 18 16 17 17 17 16 17 17 22 23 21 19 20 23 29 27 25 22 25 28 32 32 31 31 30 28 29
14 15 15 16 16 16 16 16 16 16 16 16 16 17 17 18 17 18 19 19 20 22 21 22 24 24 14 20 23 23 26 29 30 33 34 34 30 26
15 15 15 15 16 16 16 15 15 15 16 16 16 17 18 17 18 19 21 21 24 22 21 20 22 20 15 16 23 23 24 27 29 29 31 35 35 35

GFSNE_sfc_dewp_009.txt.gz
Dewpoint
20 20 20 20 21 21 22 21 18 15 15 14 18 19 22 23 25 23 23 29 32 32 32 33 33 34 37 35 34 34 35 35 36 38 38 38 39 41
20 19 19 20 20 22 23 23 22 20 19 18 20 22 22 21 25 23 22 29 31 32 33 32 33 32 32 32 32 33 33 35 37 39 40 41 41 41
20 21 20 20 20 21 23 23 22 22 21 22 22 23 22 22 20 22 25 25 26 31 31 31 31 30 31 32 33 33 33 35 36 38 39 40 40 41
20 21 20 18 20 21 22 21 22 22 23 22 23 23 21 22 23 25 26 22 22 26 29 29 29 30 30 31 32 33 34 35 35 34 36 37 38 38
20 19 18 19 18 20 21 22 22 22 23 24 22 22 24 26 27 23 20 18 16 24 27 28 29 30 30 31 31 31 31 32 32 32 34 35 36 37
21 20 19 19 19 22 22 22 22 21 22 23 25 27 24 22 22 18 17 19 20 19 25 26 28 28 29 29 29 28 28 29 30 30 31 31 32 33
21 20 20 23 27 26 23 23 23 24 29 29 25 23 21 18 17 19 19 22 22 22 22 21 21 22 23 27 26 27 27 28 29 30 32 32 33 33
20 20 21 25 25 28 28 28 28 31 30 26 24 18 16 17 19 22 24 22 20 20 19 21 22 21 21 21 25 27 28 29 29 30 30 32 32 32
22 22 21 21 26 23 27 29 34 29 27 23 18 16 18 21 28 26 24 22 21 22 22 20 21 20 20 18 26 27 28 29 29 30 32 32 32 32
23 22 22 22 24 25 26 32 26 23 19 18 19 23 27 24 22 22 24 26 23 21 19 20 19 19 19 20 26 27 28 28 29 30 31 31 31 33
22 22 23 23 26 27 28 27 19 18 20 24 28 27 25 26 25 24 24 22 19 17 18 18 18 19 20 21 22 25 26 28 29 30 30 30 30 30
22 22 25 25 27 29 24 19 19 18 24 25 17 17 19 19 24 20 23 21 20 19 16 21 20 20 19 17 20 21 22 26 28 29 31 32 32 29
20 22 21 26 28 25 24 18 19 24 21 16 15 16 17 17 18 20 22 24 21 21 20 24 24 23 22 23 21 21 23 25 28 28 30 32 35 35
24 21 22 26 24 23 21 24 25 23 15 15 16 16 19 21 22 23 23 24 24 24 25 26 24 24 23 22 21 22 24 27 29 30 30 31 33 34
21 24 25 24 21 19 21 23 22 16 16 17 17 20 21 22 23 23 24 24 24 25 26 26 26 26 25 24 24 24 26 27 29 30 31 32 32 32
23 22 20 19 20 19 17 16 15 15 17 18 17 17 17 20 21 22 21 22 21 22 25 27 28 29 27 26 27 26 27 26 30 32 33 33 34 34
21 16 13 13 14 14 14 15 15 15 18 18 17 17 16 18 19 21 21 22 19 20 21 24 28 29 28 28 26 27 27 28 31 32 32 32 33 35
17 12 13 14 14 14 14 15 16 18 17 19 18 19 18 19 20 21 21 20 20 20 21 25 26 25 26 29 28 28 29 29 30 32 33 31 31 32
13 14 14 15 15 16 17 18 18 18 19 19 18 18 20 20 19 19 19 20 20 21 24 26 25 25 22 23 27 28 29 29 31 30 32 31 31 32
13 13 15 15 16 17 18 18 18 17 17 18 19 20 19 19 19 19 19 19 21 23 24 25 26 26 25 25 25 27 29 31 30 30 30 32 33 33
13 14 15 16 17 18 18 18 18 17 19 20 18 19 19 20 18 19 20 22 23 23 22 24 26 28 28 28 26 26 28 30 32 31 31 30 30 30
13 15 15 16 17 17 18 17 17 17 18 18 18 19 20 20 19 20 20 22 22 23 24 26 27 28 27 26 24 25 27 29 31 31 34 34 30 27
15 15 16 16 17 17 17 17 16 17 18 19 19 19 20 20 21 21 22 23 24 25 24 25 26 26 25 25 25 25 26 28 28 28 30 34 35 35

GFSNE_sfc_dewp_012.txt.gz
Dewpoint
21 21 21 21 21 21 21 21 19 15 14 14 14 16 19 20 23 21 22 28 31 33 33 33 33 34 34 36 36 37 36 37 37 38 38 38 39 40
20 21 20 20 20 21 21 21 20 19 17 16 16 18 19 18 23 22 22 28 30 32 32 32 32 32 33 33 33 33 34 34 37 37 39 40 40 40
21 22 22 20 19 18 19 19 19 20 18 19 18 19 20 21 20 22 23 23 25 29 30 30 30 31 32 33 34 34 34 35 35 37 37 38 39 40
21 23 22 16 17 17 18 18 19 20 20 20 21 21 20 22 23 22 20 17 18 22 27 29 30 31 31 31 32 33 34 34 35 37 36 37 38 38
21 21 19 17 16 17 17 20 21 19 21 22 21 23 25 25 24 21 18 17 16 24 27 28 30 30 31 31 32 32 32 32 33 33 33 34 34 35
22 22 20 18 19 19 20 21 20 21 21 22 25 29 26 24 22 18 16 20 20 19 24 26 28 29 30 30 30 30 29 30 31 32 32 32 33 34
20 20 19 22 26 27 24 23 22 23 27 29 31 26 23 18 15 18 19 22 23 23 23 22 22 22 24 27 27 28 28 29 30 31 32 33 33 33
19 18 19 24 23 27 27 27 26 29 31 30 27 21 16 15 18 21 25 24 22 22 21 21 23 22 23 23 26 27 28 29 30 30 31 33 33 33
21 22 20 18 25 21 25 28 30 33 31 25 20 16 17 19 27 29 25 24 22 22 23 22 21 21 22 19 26 27 29 29 31 31 32 32 32 33
22 21 20 21 22 24 25 30 29 24 19 17 18 20 25 27 25 22 24 25 24 22 21 22 20 20 21 22 27 28 29 29 30 31 32 32 32 32
19 19 21 21 25 27 28 29 20 17 19 23 26 29 27 26 25 23 25 24 21 19 19 19 19 20 21 22 22 24 26 29 32 34 35 34 33 33
18 19 24 24 26 29 25 19 19 17 21 26 19 18 20 20 24 21 25 25 23 21 18 22 21 20 21 19 20 23 24 28 29 31 34 35 35 33
18 19 20 24 27 26 25 18 18 23 23 18 16 16 17 18 19 22 24 26 24 23 21 24 25 24 24 24 22 23 25 26 28 29 32 33 34 36
22 19 20 25 25 24 22 22 25 24 17 16 16 16 20 24 25 26 26 26 26 26 27 27 25 25 24 23 22 23 25 28 31 32 33 34 35 35
20 23 25 24 22 19 20 23 22 17 16 17 17 22 23 24 26 26 27 27 27 27 27 27 27 27 26 25 24 26 27 29 31 32 33 34 33 34
22 23 20 20 19 18 17 16 16 16 17 18 18 18 19 23 23 24 24 24 23 24 27 28 29 29 27 28 27 25 29 28 31 32 33 33 34 35
22 16 12 12 13 14 15 15 16 17 19 19 19 18 17 20 22 23 24 24 22 22 24 26 29 30 30 29 27 28 28 29 31 32 32 32 33 34
17 12 12 14 14 14 15 16 18 20 19 21 20 21 21 21 22 23 23 23 22 21 23 25 27 27 27 29 30 29 29 29 31 31 33 32 31 32
12 13 14 15 16 17 18 20 21 20 22 21 22 22 23 23 21 22 22 23 23 23 24 27 27 27 25 22 26 29 28 29 30 31 31 32 31 32
12 13 16 15 16 18 19 20 21 20 20 21 22 23 22 22 22 22 22 22 23 24 24 26 27 28 26 25 25 27 29 31 31 30 30 31 32 34
12 14 15 16 17 19 20 21 21 20 22 22 22 22 23 23 22 22 23 24 24 24 24 24 28 30 31 29 27 26 28 29 31 32 32 30 30 31
12 15 16 17 19 20 21 21 21 20 20 21 22 22 23 24 23 23 23 24 24 26 26 28 29 30 27 25 25 26 27 28 30 32 33 34 31 27
14 15 16 18 19 20 20 20 20 20 20 21 21 22 23 23 24 25 26 26 27 27 26 26 26 29 27 28 27 27 27 28 28 29 31 35 36 36

GFSNE_sfc_dewp_015.txt.gz
Dewpoint
24 25 24 24 25 25 24 23 22 19 18 18 17 20 20 20 23 22 22 28 31 33 33 33 33 34 35 35 36 36 37 37 37 38 38 38 39 41
22 22 22 23 23 24 24 23 22 20 18 19 19 19 20 19 23 22 23 29 30 31 31 31 32 32 32 33 34 35 35 36 38 38 40 40 40 40
22 24 23 23 22 21 21 21 21 21 19 20 21 21 21 21 21 24 26 23 23 29 29 29 30 31 32 33 34 35 35 36 36 38 38 39 40 39
21 26 25 19 20 19 20 19 19 20 21 20 22 22 22 21 23 26 24 20 20 23 28 29 30 31 31 32 32 33 34 34 35 36 38 38 39 39
21 21 21 20 19 18 19 20 22 21 23 22 22 22 23 25 28 24 21 21 17 24 27 29 30 31 31 32 32 32 32 32 32 33 35 36 36 36
23 23 21 21 20 20 22 23 22 23 23 22 24 26 27 29 24 21 18 20 20 20 25 27 29 29 30 30 30 30 30 31 31 32 32 33 33 34
21 20 20 24 25 26 24 25 24 24 25 27 26 28 24 21 19 18 19 21 22 25 22 22 23 22 24 28 27 28 29 30 31 31 33 34 34 35
19 18 20 25 23 25 27 27 26 26 28 28 29 23 22 19 18 21 23 24 23 22 22 21 22 22 23 23 27 28 29 30 31 32 33 34 34 33
23 23 21 18 25 22 24 26 28 30 31 25 22 19 18 19 24 25 26 24 21 22 22 22 23 21 22 20 27 28 30 31 31 32 32 33 34 34
23 20 20 20 23 23 24 28 28 27 23 19 20 20 23 25 30 29 24 24 23 22 23 21 21 20 21 22 28 29 30 30 30 31 32 35 37 37
19 19 20 20 24 26 25 28 25 20 21 24 25 27 28 27 25 22 23 23 21 20 21 20 20 21 21 21 22 26 28 29 30 31 32 33 33 36
19 19 23 22 25 26 25 22 21 19 20 23 23 21 21 20 24 22 24 25 23 21 20 22 23 22 20 19 21 22 23 28 30 31 32 32 34 34
20 20 21 24 26 27 26 21 20 21 24 21 19 17 18 19 20 23 25 26 24 22 22 23 24 23 22 21 21 21 22 24 26 27 31 33 34 35
21 22 21 25 26 25 23 23 24 24 19 17 17 17 19 22 23 25 25 25 26 26 26 26 24 24 23 21 20 20 22 24 27 29 30 33 34 35
22 23 25 24 24 20 20 23 22 18 17 18 19 21 22 23 23 24 25 26 26 26 26 26 26 26 26 23 22 23 24 25 28 29 31 33 33 34
23 23 22 21 18 18 17 17 17 17 19 21 20 20 20 21 21 22 23 23 23 23 24 26 27 27 26 26 26 25 26 24 27 29 31 31 32 32
22 19 16 12 15 14 15 16 17 18 21 21 22 21 19 20 21 22 22 24 22 21 22 24 26 26 27 28 26 25 26 27 29 29 29 29 30 32
19 15 13 15 15 15 16 17 18 21 21 22 21 21 21 21 21 22 22 22 22 22 23 24 25 26 25 25 28 26 26 26 28 28 29 30 29 30
13 13 15 16 17 17 19 20 20 21 22 22 22 21 22 22 21 20 21 22 21 21 22 24 26 25 22 20 23 28 27 27 27 28 29 30 30 30
13 13 16 17 17 19 20 20 21 20 20 21 21 22 22 21 21 21 21 21 21 22 24 24 25 25 24 24 25 26 29 28 29 28 29 30 31 32
13 15 16 17 18 20 20 21 20 20 21 22 21 22 22 22 21 21 21 24 25 24 22 23 26 30 29 29 26 24 26 29 30 31 31 29 29 30
13 15 17 18 19 20 21 20 20 19 20 20 21 22 22 22 22 23 23 23 23 24 25 27 28 29 29 27 25 26 26 27 30 31 33 34 31 27
15 16 17 18 19 20 20 20 19 19 19 20 21 21 22 22 23 24 24 25 26 28 27 27 27 28 26 26 27 27 27 27 29 29 30 33 36 36

GFSNE_sfc_dewp_018.txt.gz
Dewpoint
22 23 24 25 25 25 25 24 22 19 18 19 18 19 21 21 24 23 21 28 31 33 34 34 33 33 34 35 35 36 36 37 38 39 40 40 42 42
23 21 22 24 24 25 24 24 22 21 18 18 19 20 21 21 24 23 22 28 31 33 32 32 31 32 32 33 34 36 36 37 38 39 40 41 41 42
21 23 23 23 24 23 22 22 21 21 19 18 20 22 22 22 22 22 23 26 26 31 30 31 30 31 32 33 34 34 35 36 38 39 39 40 41 40
21 23 24 22 21 21 21 20 20 20 20 20 22 22 22 22 22 25 27 25 22 26 29 29 30 31 32 32 33 33 34 35 35 36 38 38 37 38
21 22 22 21 20 20 19 21 23 22 24 23 22 23 23 24 26 30 24 20 20 24 27 29 30 32 32 32 32 32 32 33 33 33 34 35 36 37
24 24 22 21 21 20 22 23 23 24 24 23 23 25 26 27 27 22 20 20 20 20 24 28 30 30 31 30 31 31 31 31 32 32 32 33 33 34
21 20 21 25 26 25 23 24 25 25 24 24 25 24 28 22 21 21 19 19 20 23 25 22 22 22 23 27 27 29 30 31 31 32 33 34 34 34
20 20 21 26 25 26 26 27 26 26 25 25 28 23 21 21 19 19 20 21 21 25 21 21 22 21 23 24 28 29 30 31 31 32 33 34 34 35
21 22 22 19 25 23 25 26 27 29 29 25 22 21 19 19 22 23 24 27 24 22 22 21 22 22 22 21 27 29 30 31 32 32 32 33 34 35
21 20 20 20 22 23 24 25 26 27 27 23 21 20 22 23 26 29 26 23 22 22 22 22 22 21 21 22 28 29 30 30 30 31 32 32 33 34
19 19 20 21 25 26 25 23 24 22 23 25 25 27 28 27 25 22 22 21 20 20 22 21 21 21 21 21 22 27 27 28 29 31 31 32 33 33
20 20 24 23 26 26 23 22 21 20 20 22 23 22 22 21 24 21 23 22 21 20 19 23 22 22 19 19 20 21 22 26 28 29 30 31 32 30
21 21 22 26 26 27 26 21 20 22 23 22 18 18 18 18 19 21 23 24 23 21 22 23 23 22 22 20 20 20 21 22 22 24 28 31 32 33
21 22 22 26 26 25 23 23 24 24 18 17 17 17 19 21 22 23 23 23 24 24 25 27 25 24 22 21 19 20 21 23 25 26 27 30 32 33
22 24 25 25 24 21 21 22 22 18 17 18 21 21 21 21 22 22 22 23 23 24 25 25 25 25 25 22 22 23 23 24 26 27 27 28 29 31
25 23 23 22 20 18 17 18 18 17 19 19 20 20 21 22 20 21 22 21 21 21 23 24 24 25 24 24 24 23 24 24 27 27 28 29 30 30
23 20 17 14 15 15 16 17 17 18 19 20 21 21 20 20 20 21 21 22 21 19 20 22 24 24 25 24 24 24 24 25 27 28 27 27 28 29
19 15 14 15 16 16 16 16 18 20 19 21 21 20 20 20 20 21 22 20 19 20 20 21 22 22 23 23 27 25 26 26 27 27 27 26 27 29
13 14 15 16 16 17 17 18 18 19 20 20 20 20 20 21 21 19 19 20 20 19 20 21 23 23 21 19 23 28 27 27 27 27 27 27 28 29
13 13 15 16 16 17 17 18 19 19 19 19 19 21 20 20 19 19 20 20 21 22 23 23 23 24 24 24 25 26 29 28 29 28 27 28 30 32
13 14 16 16 17 17 18 19 19 19 20 20 19 20 20 21 20 20 21 23 24 23 22 23 25 30 30 29 26 23 26 29 30 30 30 29 28 29
13 15 16 16 17 18 18 19 18 18 18 18 19 20 20 21 20 21 21 21 22 24 24 27 28 28 28 26 24 25 26 27 29 31 32 32 30 28
14 15 16 16 17 18 18 18 18 17 18 18 18 19 20 20 21 21 22 23 24 26 27 26 27 27 26 27 27 26 26 26 26 28 29 32 33 34

GFSNE_sfc_dewp_021.txt.gz
Dewpoint
23 23 24 26 25 25 25 24 21 19 17 19 19 20 22 22 25 24 23 29 32 32 33 34 34 33 34 35 35 36 37 39 39 40 41 41 41 42
23 22 22 24 24 24 24 23 22 21 17 18 19 20 21 21 25 24 24 29 30 33 34 33 32 32 33 33 34 35 36 36 38 40 41 41 42 42
21 22 23 23 24 24 22 21 20 21 19 19 20 22 22 23 23 23 24 24 27 32 31 31 31 31 32 33 33 34 35 36 37 38 40 40 40 41
20 22 23 23 21 21 21 19 20 21 21 20 23 23 23 23 23 24 25 27 27 27 29 29 30 31 31 32 33 33 33 34 36 37 37 37 37 39
21 22 22 22 21 21 20 20 23 22 24 23 23 24 23 25 26 26 28 24 22 26 27 28 30 31 32 32 32 32 32 33 33 33 33 35 36 37
23 23 22 21 21 20 20 22 22 23 24 24 24 24 25 25 27 23 22 22 20 19 23 27 30 31 30 30 31 30 30 31 32 33 33 34 35 36
22 20 21 25 26 26 23 24 24 24 25 24 24 24 25 22 20 22 20 19 20 22 23 24 24 22 23 27 27 29 30 32 32 32 33 34 35 36
21 21 21 26 25 26 26 26 25 25 23 25 26 23 22 21 20 19 20 21 21 24 23 22 23 22 22 23 28 30 30 31 32 32 33 33 34 35
21 21 21 20 25 22 26 27 27 28 28 25 23 22 21 20 22 22 25 26 24 23 23 21 22 21 22 22 28 29 30 31 31 31 32 33 34 34
21 20 19 19 22 24 23 25 26 26 26 25 23 22 22 24 27 26 23 23 22 21 21 20 21 20 21 22 27 29 29 30 30 30 31 31 32 33
20 21 22 21 25 27 25 23 23 23 24 26 26 28 28 27 25 22 21 20 19 18 20 20 20 21 21 21 21 27 27 28 28 29 30 31 31 32
21 22 26 24 26 27 24 23 22 20 21 22 23 22 21 21 24 21 21 20 20 19 18 22 21 21 20 19 19 21 21 26 28 29 29 30 30 28
22 21 22 26 26 27 26 22 20 21 23 18 17 18 18 19 20 21 22 22 21 20 20 22 23 22 22 21 20 21 21 21 22 23 27 29 30 30
21 22 22 26 26 25 23 23 24 23 17 17 17 18 20 21 21 22 23 23 23 22 23 23 22 22 21 20 18 19 20 22 24 24 25 28 31 32
21 24 26 25 23 21 21 22 21 18 17 18 19 19 20 21 22 22 22 22 22 23 24 23 23 23 23 21 20 20 21 22 24 25 25 27 27 28
24 24 23 20 20 19 18 17 17 17 19 19 19 19 20 20 20 21 21 21 21 20 22 23 23 23 22 23 23 22 23 22 24 25 26 27 28 29
23 19 16 14 15 15 16 16 17 17 19 19 19 19 18 19 19 20 20 20 20 19 19 21 23 23 23 23 22 21 22 22 24 25 26 27 27 28
16 13 13 15 15 14 15 16 17 19 18 19 19 19 19 18 19 20 21 20 19 18 19 20 21 21 21 22 26 23 24 25 25 26 27 26 26 28
13 13 14 15 15 16 16 17 16 18 19 19 18 18 18 18 20 18 19 19 19 19 19 21 23 23 20 18 22 27 28 28 27 27 27 27 27 28
13 13 14 15 15 16 16 16 17 18 18 18 19 19 19 19 18 18 19 19 20 21 23 23 23 24 23 23 25 26 29 28 28 27 28 28 30 31
13 14 15 15 15 16 16 16 17 17 19 19 17 18 18 19 18 18 19 22 24 22 21 21 24 29 29 29 25 23 25 28 29 29 29 28 27 28
12 14 15 15 15 15 15 16 17 17 17 17 17 18 19 19 18 19 20 20 21 22 23 25 27 28 28 26 23 23 24 26 28 29 30 31 30 26
14 15 16 15 15 15 16 16 16 16 16 17 18 18 18 18 19 20 21 22 23 24 26 25 26 26 25 24 25 24 24 24 25 26 27 31 32 32

GFSNE_sfc_dewp_024.txt.gz
Dewpoint
23 24 25 26 26 25 25 24 21 18 18 19 18 20 21 22 25 25 24 30 32 32 33 34 35 35 34 35 36 36 37 37 37 39 40 40 41 42
24 23 23 24 24 25 24 24 23 20 17 19 18 20 20 22 25 24 24 29 31 33 33 33 33 33 33 34 34 35 35 36 37 39 41 41 41 41
22 23 22 23 24 24 23 22 21 21 19 19 20 22 23 23 23 24 25 24 26 31 32 32 32 32 32 33 33 34 34 36 37 38 39 40 40 41
20 23 24 23 23 22 22 20 20 20 21 20 22 23 23 24 24 23 25 25 26 30 31 31 31 31 31 32 33 33 33 33 34 35 36 36 37 38
21 22 22 22 21 22 21 21 21 21 23 23 23 24 24 24 25 25 26 26 24 27 28 29 30 31 32 33 33 32 32 33 33 33 33 34 35 37
23 22 21 22 21 21 20 20 22 23 23 23 23 23 24 25 26 25 21 22 21 20 24 27 30 31 31 31 31 31 31 31 32 33 33 34 35 36
22 21 21 23 28 25 23 24 24 24 23 22 24 23 24 22 21 21 21 20 21 23 23 23 24 25 24 28 28 29 30 31 32 33 33 34 34 35
21 21 21 26 25 27 27 26 25 25 22 22 19 24 23 22 21 21 21 21 21 24 23 22 23 22 22 23 28 30 31 31 31 31 32 33 34 35
21 21 20 19 24 22 25 27 27 28 28 25 24 23 22 22 22 22 23 25 23 23 22 20 21 20 22 22 28 29 30 31 31 32 31 32 33 34
21 20 20 21 22 24 24 25 26 25 25 25 25 24 24 24 28 26 23 23 22 21 20 19 19 19 20 21 27 29 30 30 31 31 31 31 31 31
21 21 23 22 26 27 25 24 23 23 25 27 27 28 29 28 25 23 21 20 18 18 19 19 19 19 20 20 21 28 28 28 29 29 30 31 31 31
21 22 25 24 26 27 25 23 22 21 21 22 20 19 21 21 25 22 21 19 19 18 18 20 20 20 19 20 20 21 21 26 28 29 30 30 30 27
21 21 21 26 27 27 26 21 20 21 20 17 17 17 18 19 20 22 22 21 20 20 20 23 22 20 21 19 20 20 20 21 21 23 27 28 29 29
21 21 21 27 26 24 22 23 24 23 17 16 17 18 19 20 21 22 22 22 23 22 23 23 21 20 19 18 17 18 19 21 22 23 24 27 30 31
22 24 26 25 22 19 21 22 22 17 17 17 18 19 19 20 21 21 22 22 22 23 24 24 24 22 22 19 18 19 20 21 23 23 24 24 24 26
24 23 21 18 18 18 17 17 17 17 18 19 18 18 19 19 19 20 20 20 20 19 22 24 24 24 21 21 21 20 21 21 22 23 24 24 25 26
21 16 13 13 15 14 14 16 16 16 18 18 18 18 17 18 18 19 19 19 19 18 18 20 22 23 23 23 21 20 20 21 22 23 24 24 26 27
14 12 13 14 14 14 14 15 16 18 17 18 18 18 18 17 17 19 20 19 18 18 18 19 20 21 21 23 26 22 22 22 24 25 27 26 26 27
12 13 14 14 14 15 15 15 15 16 16 18 17 17 17 18 19 17 17 18 18 18 18 20 22 23 20 17 21 26 27 28 27 27 27 27 26 27
13 13 14 14 15 15 15 15 15 16 16 17 18 18 17 17 17 17 17 18 18 19 21 22 22 23 22 22 24 26 29 28 28 27 26 27 29 30
12 13 14 14 15 15 15 14 14 15 18 18 15 16 17 17 17 17 18 22 23 21 20 21 23 28 28 28 25 23 24 27 28 28 28 27 25 26
12 14 15 15 15 14 13 14 15 15 15 16 16 18 18 19 18 18 18 20 20 21 22 24 26 26 26 25 23 24 24 25 27 28 29 29 28 24
14 15 16 15 14 13 14 15 15 15 15 16 17 18 19 19 20 21 21 21 22 24 25 24 24 25 24 24 24 23 24 23 24 26 26 29 31 31

GFSNE_sfc_dewp_027.txt.gz
Dewpoint
25 25 25 26 26 26 26 24 21 18 18 18 18 20 21 22 25 26 24 30 32 33 34 35 35 35 35 35 36 36 37 37 38 38 40 41 42 42
25 24 24 25 25 25 25 24 24 21 18 19 18 19 20 22 25 26 25 30 31 33 32 33 33 34 34 34 35 35 35 36 37 38 40 40 42 41
24 23 23 23 24 25 25 23 22 21 19 19 20 20 21 23 24 25 26 24 25 31 32 33 33 33 33 33 34 34 34 35 38 39 40 40 40 40
25 27 25 23 23 24 23 21 21 21 20 18 21 22 23 24 24 24 24 25 26 29 32 32 32 32 32 33 33 34 35 36 35 35 35 36 37 38
22 21 22 22 22 23 22 22 21 20 21 22 22 24 24 24 24 25 25 26 24 27 29 29 30 31 32 32 32 33 33 33 33 33 34 35 35 36
24 23 22 23 22 21 20 20 20 21 22 23 23 23 23 25 25 24 21 22 21 21 25 27 30 31 31 31 32 32 31 32 33 33 33 33 33 35
22 21 22 23 27 26 23 23 24 23 23 21 23 21 23 24 22 22 21 21 21 23 23 23 24 24 24 28 28 29 30 31 33 33 33 33 33 35
22 20 21 23 24 27 27 28 25 23 20 19 17 23 24 22 22 22 22 22 21 23 22 22 23 21 21 22 28 30 31 32 32 32 32 33 33 34
21 21 19 19 24 22 25 27 27 28 28 25 23 23 22 23 23 23 24 24 23 22 22 20 20 20 21 21 28 29 30 31 32 32 32 32 32 33
21 20 20 22 23 24 24 25 25 25 25 24 24 24 25 25 26 28 25 23 22 21 21 18 19 19 20 20 27 29 30 30 31 31 32 31 31 32
21 21 23 23 26 27 25 23 24 23 25 26 26 28 29 28 25 22 21 20 18 18 19 19 19 18 19 19 20 27 28 29 29 30 30 30 30 31
21 21 24 23 26 27 25 23 21 20 21 22 21 19 21 20 25 21 19 18 19 18 18 19 19 20 18 20 20 21 20 26 28 29 30 30 30 27
21 21 21 25 27 27 26 20 20 21 21 17 16 17 18 19 20 21 22 18 20 19 20 22 21 20 21 19 19 19 19 20 20 22 26 28 29 29
21 21 21 27 27 25 22 23 23 23 16 16 17 17 19 19 20 21 22 22 22 22 22 23 21 19 19 17 16 17 19 20 21 22 23 26 29 30
22 24 27 25 22 19 21 22 22 17 17 17 18 19 19 19 20 20 21 21 21 22 23 23 23 22 22 19 18 19 20 20 22 22 23 23 23 24
24 23 20 18 18 18 17 16 16 16 18 18 18 18 18 19 19 19 19 19 19 18 21 22 22 22 21 21 21 19 20 20 22 23 23 23 24 25
23 14 13 13 14 14 14 15 16 16 17 18 17 17 17 18 18 18 18 18 18 17 17 19 22 22 23 22 20 20 20 21 22 22 23 22 24 25
15 12 12 14 14 13 14 14 15 17 16 17 17 17 16 16 17 18 19 17 17 17 17 19 20 20 21 22 25 22 22 22 23 24 25 24 24 27
12 13 13 14 14 14 15 14 14 15 15 15 15 15 16 17 18 16 16 17 17 17 18 19 21 22 18 16 20 25 26 27 28 27 27 26 26 27
12 12 13 14 14 14 14 14 15 15 15 15 15 17 17 16 16 16 17 17 17 18 20 21 21 23 22 21 23 24 28 27 28 26 25 26 27 29
12 13 14 14 14 15 14 14 13 13 16 17 15 15 17 17 16 17 18 22 23 20 20 21 22 27 27 28 23 21 23 27 28 27 28 26 25 25
12 14 14 15 15 14 13 13 13 14 14 14 15 17 18 20 19 20 19 20 20 21 21 23 26 26 26 25 22 22 23 24 26 28 29 29 27 24
13 14 15 15 14 14 14 13 14 14 14 14 16 18 19 20 21 22 21 21 22 22 26 26 26 26 25 24 24 23 23 24 24 24 26 29 31 32

GFSNE_sfc_dewp_030.txt.gz
Dewpoint
29 26 27 28 27 27 26 24 20 16 18 19 18 20 20 21 24 27 26 30 32 32 33 34 34 34 35 36 36 37 37 37 38 38 39 39 42 43
29 26 25 26 27 27 27 25 23 21 18 19 18 19 19 20 25 27 26 30 31 32 32 32 33 34 34 35 35 35 36 37 37 39 40 40 41 41
27 27 25 25 27 26 25 24 24 23 20 20 20 20 20 21 23 24 26 25 25 31 32 32 33 33 34 34 34 34 35 35 37 38 39 41 41 41
29 30 28 23 25 25 26 23 21 21 20 19 20 21 22 23 24 24 24 24 25 29 32 32 32 32 33 33 33 33 34 35 35 36 37 38 39 38
32 30 26 24 23 24 23 23 22 21 21 21 21 23 24 24 24 24 24 25 26 28 29 30 30 32 33 33 33 33 33 33 33 33 34 35 35 36
30 29 27 25 25 24 22 21 21 21 21 22 22 22 23 24 24 24 22 22 22 22 26 28 30 30 31 32 32 32 32 32 33 34 34 34 34 35
28 26 25 25 27 26 23 24 23 23 23 21 22 22 22 24 23 23 22 22 22 23 23 23 24 24 24 28 28 29 30 31 33 33 33 34 34 35
29 27 24 24 25 26 26 27 26 24 20 19 17 22 23 23 22 22 22 22 21 23 22 22 23 22 22 22 27 29 31 32 32 33 33 32 33 34
27 23 21 21 25 22 25 27 27 28 28 25 24 23 22 22 22 21 23 24 23 23 22 21 21 20 21 20 27 29 30 31 32 32 33 33 32 33
25 23 23 22 24 24 24 25 25 25 25 24 24 24 24 24 25 27 25 23 23 22 22 19 19 19 19 20 27 28 30 31 31 31 32 32 31 32
21 22 23 23 25 26 25 23 24 23 24 26 26 27 28 27 25 22 20 19 18 17 19 19 19 18 19 19 20 27 28 28 29 30 30 31 31 31
21 21 24 22 25 26 25 23 20 20 21 22 20 19 20 19 25 21 18 16 18 17 18 19 18 19 18 20 19 21 20 25 27 28 29 30 30 27
21 20 21 24 26 27 27 20 20 21 20 17 16 17 18 19 19 21 21 16 19 19 19 22 18 20 20 19 19 18 19 19 20 21 26 27 28 28
21 21 22 27 26 25 22 23 23 22 16 16 16 17 18 19 20 20 21 21 21 21 21 22 20 17 18 17 16 17 18 20 21 21 22 25 28 30
22 24 27 23 21 19 20 21 20 17 16 16 17 18 18 18 19 19 20 20 20 21 23 22 22 21 20 19 18 18 19 20 22 22 22 23 23 23
24 22 19 17 17 17 15 15 16 16 17 18 17 17 18 16 18 19 18 18 18 18 20 20 20 21 19 20 20 19 20 20 21 22 23 23 24 24
20 14 12 13 14 13 13 14 15 15 17 17 16 16 16 17 17 18 18 18 17 17 17 19 20 21 21 21 20 20 19 20 22 22 23 23 24 25
14 11 12 14 13 13 13 14 15 16 16 16 15 15 15 15 16 17 19 17 16 16 17 18 19 19 19 22 25 22 22 22 23 24 26 25 25 27
11 12 13 13 13 14 14 13 13 14 11 13 13 13 15 14 18 16 17 17 17 17 18 19 20 21 18 16 20 25 25 27 27 26 26 26 26 27
12 12 12 13 14 14 14 14 14 14 13 13 12 13 16 16 15 17 19 19 17 18 20 21 20 21 21 21 23 24 27 26 27 26 25 25 27 29
11 12 13 13 14 15 15 13 11 12 14 16 14 15 16 17 17 19 20 24 24 22 20 21 22 27 27 27 24 22 24 27 27 28 28 26 24 24
12 13 14 14 14 14 13 13 12 13 13 12 13 16 17 18 19 20 21 21 21 21 22 22 25 27 27 27 24 25 25 25 27 28 29 30 27 23
13 13 13 12 11 10 13 13 13 13 14 13 14 15 16 17 19 21 22 23 23 23 23 26 26 26 26 26 27 26 26 25 26 25 26 29 31 31

GFSNE_sfc_dewp_033.txt.gz
Dewpoint
37 35 32 30 29 29 28 26 25 20 18 20 20 22 22 22 23 25 26 29 33 33 33 33 34 34 35 36 37 37 37 38 38 39 40 40 40 41
33 30 29 29 29 29 29 27 26 23 18 21 20 20 21 19 23 26 26 31 31 32 32 32 33 34 34 35 36 36 37 37 38 38 40 41 42 43
29 28 28 28 29 29 29 27 26 25 21 22 21 21 21 22 23 25 26 26 25 30 31 32 33 34 34 35 35 35 36 36 37 38 39 41 41 42
32 33 32 31 32 31 30 28 27 25 24 21 21 21 22 23 25 25 24 24 24 27 31 33 33 33 33 34 34 34 34 34 35 36 36 37 37 38
34 33 31 31 30 30 30 29 28 27 27 23 21 23 24 25 25 25 25 25 24 27 29 30 31 32 33 33 34 34 34 34 34 35 35 35 36 36
33 32 32 31 30 30 31 31 30 27 26 23 23 25 25 25 25 25 23 23 21 22 26 28 30 30 31 32 32 32 32 33 33 34 34 34 34 35
32 32 32 31 32 32 30 29 28 28 27 28 25 25 25 24 23 23 22 21 23 25 24 23 23 23 24 27 28 29 30 32 33 34 34 34 35 36
30 31 31 33 33 34 33 32 31 30 29 27 27 23 24 24 23 22 23 24 22 23 22 22 23 22 22 23 27 29 31 32 32 33 33 34 33 34
31 30 30 30 31 29 29 29 27 28 28 27 25 24 23 23 26 26 26 25 23 23 23 21 21 20 22 20 27 29 30 31 32 33 33 33 33 33
30 29 29 29 28 26 25 27 27 26 25 25 25 24 25 25 27 28 26 24 22 21 21 20 20 19 20 21 26 28 30 30 31 31 32 32 32 32
28 25 23 22 23 24 25 28 25 24 23 25 26 27 28 27 26 23 24 23 20 18 19 19 19 19 19 20 20 26 28 28 29 30 30 31 31 32
21 21 23 22 24 25 26 27 22 20 21 22 21 20 20 19 24 21 23 22 21 20 19 20 19 19 20 18 19 20 21 25 27 28 29 30 30 28
21 20 20 24 26 28 26 20 20 21 20 17 16 16 17 18 19 20 22 24 22 21 20 23 24 22 21 20 19 19 20 21 21 22 26 27 28 29
21 21 22 27 26 24 21 21 22 22 16 14 16 17 19 21 22 23 23 23 23 24 24 25 22 21 21 20 18 18 21 23 25 25 27 27 29 30
22 24 25 22 20 18 19 19 19 15 15 16 17 20 21 22 23 23 24 24 24 24 25 25 24 23 22 21 20 21 22 22 25 26 28 27 27 27
25 21 19 17 17 16 14 13 14 15 17 18 17 17 18 21 21 22 21 21 21 22 25 26 25 24 22 22 22 21 23 22 25 26 27 27 27 27
21 14 11 11 12 12 13 14 15 16 18 18 17 17 16 18 20 21 21 21 20 21 22 23 26 25 25 24 21 22 21 23 26 27 27 26 27 28
13 10 11 12 13 13 14 15 15 17 17 18 18 17 17 18 19 20 22 22 21 21 22 23 24 23 23 24 26 23 25 26 28 29 28 27 27 29
10 12 12 13 15 16 16 17 17 17 17 17 17 17 17 18 19 20 20 21 22 23 24 24 24 24 21 19 23 25 27 28 28 28 28 27 27 28
11 11 14 15 16 17 17 17 17 16 16 16 17 17 17 19 19 19 20 22 23 24 25 26 26 25 23 22 24 26 28 28 29 28 28 29 29 30
10 13 14 15 16 17 17 17 16 16 17 19 18 17 18 19 19 20 21 24 25 24 24 24 26 28 28 28 25 25 27 29 30 31 30 29 27 27
11 13 14 15 16 16 16 16 16 16 17 17 17 17 18 19 19 19 20 21 22 24 25 26 27 28 29 27 25 26 26 27 29 30 31 32 29 26
14 14 15 15 16 15 14 15 15 16 16 17 18 18 18 18 19 20 21 22 23 24 25 26 29 28 28 26 26 26 26 26 26 27 28 30 31 31

GFSNE_sfc_dewp_036.txt.gz
Dewpoint
46 42 36 34 33 31 30 31 33 29 25 23 22 23 23 23 24 22 23 29 32 34 35 34 34 35 36 37 37 38 38 38 38 39 40 40 40 43
44 38 34 31 31 31 32 30 31 28 23 23 22 22 23 19 23 24 24 29 31 32 33 33 33 34 35 35 36 37 37 38 38 39 40 40 41 42
38 37 35 34 32 32 31 31 31 32 30 29 26 26 28 29 27 25 26 24 24 29 31 32 32 34 35 35 36 36 36 37 37 38 39 39 41 40
37 35 31 31 33 33 34 33 32 31 30 29 31 31 31 31 29 26 24 23 24 27 30 32 33 34 34 35 35 35 35 35 36 36 37 37 38 38
34 34 34 34 33 33 32 32 32 32 31 30 31 29 29 30 30 28 26 24 22 27 28 29 31 32 33 34 34 34 34 35 35 35 36 36 37 37
35 35 36 33 33 33 33 33 33 33 32 30 27 28 30 30 29 26 23 23 21 19 24 28 30 31 32 33 33 33 33 33 34 34 35 35 35 36
34 33 34 34 36 35 34 33 33 31 31 31 29 30 29 25 22 23 22 21 21 24 24 23 23 23 25 28 28 29 30 31 32 34 35 35 35 35
32 32 33 34 35 36 37 35 33 32 32 30 30 26 22 22 22 22 22 23 22 24 22 22 23 22 23 24 28 29 30 32 33 33 34 34 34 34
32 32 33 34 33 31 32 33 33 34 33 28 25 23 22 22 26 27 25 25 24 24 23 21 22 21 23 21 28 29 30 31 32 33 33 33 34 34
32 31 30 30 30 29 27 27 27 26 25 24 25 24 24 24 25 28 27 26 23 22 23 23 21 20 21 22 27 28 29 30 31 32 32 32 32 33
28 28 25 23 22 25 25 28 24 24 25 26 26 26 27 28 27 24 24 25 22 20 21 21 20 20 21 22 22 26 27 28 29 31 31 31 32 32
21 21 23 21 22 25 25 25 24 23 22 21 20 21 21 19 22 22 25 25 23 22 21 22 21 21 22 21 21 22 23 26 27 28 29 30 30 28
19 17 18 24 26 28 26 24 22 21 20 20 18 15 16 19 20 21 23 26 24 24 23 25 26 24 24 24 21 22 23 24 24 25 27 28 29 29
19 19 21 26 26 24 23 21 22 22 19 13 13 16 19 24 26 26 26 27 26 27 27 28 25 25 24 21 21 21 23 25 27 27 30 29 30 30
22 24 24 22 21 19 17 20 21 15 12 15 17 22 25 25 27 26 28 27 28 27 27 28 26 24 23 22 22 23 23 24 27 28 29 30 30 29
24 23 20 18 17 16 15 13 13 14 16 19 19 19 20 23 23 25 25 25 25 25 32 31 29 28 24 24 24 23 24 23 26 28 29 29 29 27
23 16 10 9 11 11 12 14 16 16 19 20 20 19 18 20 22 24 24 24 24 24 26 27 31 30 28 27 24 23 22 23 27 28 28 28 29 29
15 8 9 11 12 12 14 16 18 20 20 21 21 22 21 22 22 23 24 24 23 24 24 25 26 26 27 27 28 25 26 27 29 30 30 28 28 30
8 9 12 14 15 17 19 20 21 21 22 21 22 22 21 21 21 22 23 23 24 25 24 26 28 27 24 22 25 28 27 28 28 28 29 29 28 30
9 10 15 15 17 19 21 21 21 21 21 21 22 22 21 21 21 22 23 23 24 25 25 26 28 28 27 25 25 27 29 29 29 29 29 30 31 31
9 12 14 16 18 20 21 21 21 20 21 21 22 21 21 22 21 21 22 23 24 24 24 25 28 29 30 30 26 25 28 30 30 30 31 29 28 28
10 13 15 17 19 20 21 20 20 20 20 21 22 22 22 22 21 21 21 22 21 23 23 26 28 29 29 28 27 27 26 27 29 30 30 31 30 27
14 15 16 18 19 20 20 19 19 19 19 21 22 22 23 22 22 22 21 21 21 23 24 24 27 28 30 29 29 28 27 26 26 26 28 30 31 32

GFSNE_sfc_dewp_039.txt.gz
Dewpoint
51 50 48 46 42 37 38 38 38 31 31 26 26 27 28 27 29 26 25 27 31 34 35 35 35 36 36 37 37 38 39 39 39 40 40 40 41 41
51 50 46 40 38 36 35 34 36 35 32 31 29 28 29 26 29 30 28 31 31 33 33 33 34 34 35 35 36 37 38 38 39 39 40 40 40 40
47 44 40 39 38 38 37 37 35 36 33 31 32 32 32 33 34 34 33 30 27 31 32 33 33 34 34 35 36 36 37 38 38 39 39 39 40 39
42 40 38 37 35 36 36 34 33 34 33 32 33 33 33 33 33 33 31 27 28 29 33 34 34 33 34 35 35 35 36 36 36 37 37 38 38 39
39 37 35 35 35 34 34 33 33 34 33 33 32 33 33 34 32 31 30 29 28 30 30 29 29 30 33 34 34 35 35 35 35 35 36 36 37 38
37 36 36 35 35 34 34 33 33 32 32 31 32 32 32 31 32 30 28 29 25 21 24 26 30 31 32 32 32 32 33 34 34 35 35 35 35 36
35 35 35 35 36 35 34 33 33 32 32 32 32 31 30 28 28 27 25 24 24 25 24 25 26 26 26 29 29 30 30 31 32 33 34 35 35 35
33 34 35 36 37 37 36 36 35 33 33 32 30 27 26 25 24 24 26 25 23 26 25 24 26 24 25 25 29 30 31 31 32 33 34 34 34 34
32 32 33 34 34 33 35 35 35 34 32 31 28 26 24 24 29 28 26 26 24 24 24 23 24 23 24 22 28 29 30 31 32 32 33 33 34 34
32 32 32 32 31 29 27 29 29 28 28 26 26 25 26 26 26 27 27 27 25 24 25 23 23 22 23 24 28 29 30 30 31 32 32 33 33 33
31 30 27 24 26 26 26 30 26 25 25 27 27 27 27 28 27 26 26 24 23 22 23 23 22 22 23 23 24 28 28 29 30 31 31 32 32 32
22 23 22 23 23 24 26 26 26 24 24 22 21 22 23 23 23 22 25 23 24 24 23 24 22 23 24 23 24 24 25 28 29 30 30 30 31 28
18 17 20 24 26 27 27 25 24 23 22 20 20 19 16 18 21 23 24 26 25 23 24 26 24 25 24 24 23 24 24 24 25 25 29 29 30 30
20 20 23 26 26 25 24 23 23 22 20 18 14 14 20 25 28 28 27 27 27 27 27 28 26 24 23 22 21 21 22 24 25 25 27 29 30 31
23 25 24 23 22 20 16 19 21 18 14 14 16 23 26 27 26 26 27 28 28 28 27 26 27 26 24 22 21 21 22 23 24 25 26 27 28 29
22 25 21 21 17 16 16 13 14 14 16 19 20 20 21 24 24 25 25 24 25 24 27 29 29 28 26 25 24 23 23 23 24 24 25 26 27 27
22 20 14 9 12 12 12 14 16 17 20 21 21 21 20 21 22 24 24 24 23 22 23 26 29 30 29 28 25 24 24 24 26 26 26 26 27 28
17 11 9 12 13 12 14 16 19 21 21 22 22 22 22 22 21 22 22 23 23 24 23 24 25 25 26 27 29 26 26 26 26 27 28 27 27 29
11 11 13 15 16 18 20 22 21 22 24 22 22 23 23 21 21 21 22 23 23 22 23 25 26 25 23 21 24 29 26 26 26 26 26 27 27 28
9 10 15 17 18 20 21 21 21 21 22 22 22 21 21 22 22 21 21 21 21 21 22 24 25 24 24 24 25 27 29 27 26 26 26 28 29 31
10 13 15 17 19 20 22 21 22 21 21 21 21 21 22 22 21 21 21 23 23 23 21 21 23 27 27 27 25 23 25 29 29 28 28 27 26 27
11 14 16 18 19 20 21 22 21 21 21 21 21 21 22 23 22 21 21 20 20 21 21 23 23 24 25 25 24 24 26 27 30 31 31 30 28 25
14 16 18 19 20 21 20 20 20 20 20 20 20 20 22 21 22 22 22 21 21 21 21 22 22 24 25 25 27 28 27 28 26 26 27 30 30 31

GFSNE_sfc_dewp_042.txt.gz
Dewpoint
55 53 49 49 48 47 46 46 44 36 34 35 36 37 35 34 36 31 26 29 31 31 34 36 36 37 37 38 38 38 39 39 39 40 40 41 41 41
52 51 50 45 43 43 42 41 43 41 35 36 35 36 37 34 34 33 31 34 36 37 36 35 35 35 35 36 37 37 38 38 39 39 40 40 41 41
49 48 43 41 40 39 39 39 38 39 36 33 34 34 33 33 35 36 36 36 35 37 36 34 34 35 35 36 36 36 37 38 38 39 39 40 40 39
43 42 40 39 39 38 37 36 36 37 37 33 33 33 34 35 34 34 33 31 29 30 33 34 35 35 35 34 34 35 36 36 37 37 38 38 38 38
41 39 39 37 36 36 36 36 36 36 35 35 33 33 33 34 34 34 32 31 29 32 33 32 30 30 31 33 35 35 35 36 36 36 36 37 37 37
37 37 37 36 35 35 36 34 34 33 33 33 32 32 33 34 33 32 30 30 30 27 25 27 29 30 32 32 32 32 32 33 34 34 35 35 35 36
36 36 36 37 36 36 34 33 33 32 32 32 32 32 31 30 29 29 29 27 25 25 25 25 26 26 27 29 29 29 30 31 32 33 34 34 35 35
33 33 34 37 38 38 38 37 34 33 32 32 31 27 26 26 27 25 25 23 21 25 24 23 25 25 26 26 29 30 31 31 32 32 33 34 34 34
32 32 33 34 34 33 37 37 36 35 33 31 28 27 24 24 26 25 24 23 23 25 24 23 24 24 25 24 29 29 31 31 32 32 33 33 34 34
32 32 31 31 32 31 31 31 30 29 28 27 26 26 25 26 25 24 25 25 25 25 24 22 23 22 23 24 29 29 30 31 31 31 32 32 33 33
31 31 31 31 31 28 26 27 26 25 26 28 26 26 27 27 27 25 21 18 20 22 23 22 22 22 23 23 24 28 29 30 30 31 31 32 32 32
25 24 22 22 24 25 26 25 25 22 23 21 20 22 23 21 23 23 22 12 14 16 23 20 22 23 19 24 23 24 24 28 29 30 30 30 31 28
18 18 23 25 27 27 27 24 23 24 22 20 20 19 18 17 18 20 22 17 12 21 24 26 13 18 24 23 23 23 23 23 24 24 28 29 30 29
20 22 26 27 25 25 24 23 23 22 20 18 15 13 16 19 22 23 26 26 27 25 26 28 25 22 23 22 21 21 22 23 24 24 25 27 29 30
23 24 24 23 22 19 19 19 20 17 15 15 15 18 19 19 19 19 21 27 27 27 28 28 26 25 25 23 22 23 23 23 24 24 24 25 25 25
24 23 21 19 14 14 14 13 14 14 15 19 20 20 20 18 19 20 19 24 24 25 29 29 26 25 25 26 25 23 24 23 23 25 25 25 25 26
22 19 16 10 12 12 13 14 15 16 19 19 21 21 20 21 22 23 24 24 23 23 23 25 28 29 29 29 26 25 24 24 25 25 25 25 26 27
18 15 11 14 15 14 15 17 20 21 21 22 23 22 22 22 22 22 24 23 22 22 23 24 25 26 26 27 29 26 26 26 26 27 27 27 26 27
12 12 14 15 16 17 17 15 20 21 23 23 22 22 23 22 21 21 21 21 20 21 22 24 24 24 21 19 22 28 25 25 26 26 26 26 26 26
12 10 14 16 16 15 14 16 20 22 22 22 22 22 22 22 21 21 21 20 20 19 20 21 23 23 22 21 22 24 28 26 25 25 25 26 27 30
11 13 15 15 14 13 14 13 20 21 21 22 22 22 21 21 21 21 20 22 23 22 19 18 20 25 26 26 22 21 22 27 28 26 26 26 26 27
11 14 15 15 13 9 10 11 14 17 17 15 16 17 19 19 19 20 20 20 19 19 20 21 23 24 23 22 20 21 21 23 27 29 31 31 28 26
13 15 14 12 10 10 10 12 14 17 17 16 16 17 17 17 19 20 20 20 20 20 20 21 22 23 22 22 23 22 23 23 25 26 27 32 32 30

GFSNE_sfc_dewp_045.txt.gz
Dewpoint
55 54 52 51 50 48 49 48 45 42 37 37 38 39 39 40 42 39 39 41 41 42 41 42 39 39 40 39 39 40 40 40 40 40 41 41 41 42
54 53 50 48 48 47 46 45 46 44 40 38 37 38 40 41 42 39 38 40 40 41 40 41 40 40 40 38 38 38 39 38 39 40 40 41 41 41
50 50 46 45 43 41 41 42 42 43 41 34 35 36 36 38 39 37 38 37 37 39 40 42 41 37 36 37 37 38 38 38 38 39 39 40 40 40
45 43 41 40 39 39 39 38 39 39 37 34 34 33 35 35 36 35 36 36 36 37 38 37 35 35 37 36 35 34 34 36 37 37 38 38 38 38
41 40 39 38 37 37 37 37 37 38 36 35 33 33 32 34 34 35 34 34 32 33 35 35 34 32 31 32 33 34 35 35 36 36 35 36 37 38
37 37 37 37 36 36 36 35 34 34 34 34 33 32 33 34 34 33 32 31 30 29 30 28 29 30 31 32 32 31 32 32 33 34 34 35 35 36
36 36 37 37 37 36 35 34 34 33 33 33 32 32 32 32 31 31 30 29 26 26 24 25 25 25 26 29 29 30 30 31 32 33 34 34 35 35
33 34 35 36 38 39 38 36 35 34 33 32 32 30 30 28 28 28 25 23 21 25 24 23 24 24 25 26 30 31 31 31 32 33 33 34 34 34
33 33 33 34 33 32 36 37 36 37 34 32 28 28 25 24 24 24 24 23 22 24 24 24 24 24 25 25 30 30 30 31 32 33 33 34 34 34
31 29 31 30 32 31 31 31 30 28 27 27 28 26 25 25 26 24 24 24 25 25 25 20 23 22 23 24 29 29 30 30 31 31 32 33 33 33
28 29 28 29 29 25 27 27 26 25 25 29 27 26 26 27 26 25 20 17 19 22 23 22 22 22 23 23 24 27 28 29 30 30 31 31 32 32
25 22 24 24 26 27 26 23 23 22 23 22 20 21 22 21 24 22 21 12 12 13 22 20 22 23 18 22 23 23 24 27 28 28 29 30 30 28
18 20 24 26 27 27 26 23 23 24 22 20 20 19 16 15 18 20 22 14 8 13 23 25 20 24 25 20 23 23 23 23 23 24 28 28 29 29
21 24 25 26 24 24 22 22 21 22 19 18 15 13 16 18 20 22 25 22 21 23 25 28 25 23 23 21 21 21 22 24 24 24 24 27 29 30
23 25 24 23 22 19 19 19 18 15 14 15 17 18 17 17 17 18 20 23 22 25 28 27 27 26 25 23 22 22 23 23 24 25 24 23 24 25
23 22 22 21 16 14 14 14 14 14 14 18 19 19 21 17 18 19 16 20 20 22 26 29 29 28 25 24 24 23 23 23 24 25 25 25 26 26
22 17 15 11 13 13 13 15 17 18 19 19 20 21 19 20 21 23 23 23 21 20 21 24 27 27 27 26 24 25 24 24 26 26 25 25 27 27
19 15 13 15 15 14 15 17 19 20 21 21 23 22 21 22 22 23 24 22 20 19 20 20 22 24 24 25 28 25 25 25 26 26 27 26 26 27
15 13 13 15 15 16 15 13 13 20 23 23 23 23 23 23 21 20 20 21 19 19 19 20 19 20 18 16 20 24 22 23 24 24 26 25 24 25
11 11 12 14 14 13 12 12 14 17 20 20 22 21 22 21 20 20 20 19 18 18 18 18 19 19 19 18 19 21 25 23 23 23 23 24 26 28
11 13 14 14 13 12 12 9 8 13 15 17 17 14 15 12 18 19 19 21 22 22 19 18 19 24 24 24 20 18 20 24 25 23 23 24 23 23
11 13 14 14 12 8 8 9 10 14 14 15 14 14 14 14 17 17 18 18 19 19 19 20 21 20 20 20 18 18 19 21 24 26 28 27 25 23
13 14 13 11 7 6 5 8 11 13 14 14 14 15 14 15 17 18 19 19 19 19 19 18 19 21 21 21 21 21 20 20 21 21 23 27 29 30

GFSNE_sfc_dewp_048.txt.gz
Dewpoint
54 55 53 52 51 51 50 49 48 44 41 40 38 40 41 42 43 43 44 46 46 45 45 44 45 46 45 45 44 44 43 42 41 41 41 42 42 43
54 54 53 50 49 48 48 47 47 47 43 39 38 39 41 42 45 41 42 44 44 44 45 44 45 44 44 44 44 42 40 40 40 40 41 41 42 42
48 49 47 46 45 44 44 43 43 43 43 37 36 37 37 40 42 39 40 40 40 44 44 43 43 43 44 43 39 39 39 39 39 39 40 40 41 41
43 43 41 41 40 39 40 39 40 40 39 36 34 34 35 37 37 37 38 38 38 39 41 41 42 42 39 38 38 38 36 36 36 37 38 38 39 39
39 40 39 39 38 38 38 37 37 38 36 36 33 33 33 34 33 35 35 36 36 38 40 40 39 39 38 35 34 34 35 35 36 36 36 36 37 38
37 37 37 37 36 36 36 35 35 35 35 34 34 33 33 33 34 34 33 35 34 34 32 32 31 31 32 32 32 33 33 33 34 34 34 35 35 36
36 37 38 38 38 37 35 34 34 33 33 33 33 33 33 32 31 33 32 31 29 29 26 25 25 25 26 28 29 30 31 31 32 33 34 35 35 35
33 33 35 36 37 40 39 38 37 34 33 32 32 30 31 31 31 30 28 24 21 25 23 23 24 24 25 26 29 31 31 32 33 33 34 34 34 34
31 29 31 32 32 33 35 36 36 37 36 32 30 27 26 24 25 22 23 20 21 23 24 24 25 24 25 25 30 30 31 32 32 33 33 34 34 34
23 22 22 26 31 31 28 27 27 27 27 27 28 26 25 25 25 23 23 23 24 25 25 19 22 22 23 24 29 30 30 31 31 32 33 33 33 33
25 26 25 25 25 27 25 25 24 23 25 29 27 27 26 26 27 25 19 16 19 21 23 22 22 22 23 23 24 29 28 28 29 30 31 31 32 32
20 19 27 26 28 29 25 23 22 22 23 23 21 21 22 21 24 22 21 10 11 13 21 19 21 22 17 21 24 23 23 27 28 29 30 30 31 29
19 21 24 28 27 26 25 22 23 24 22 20 19 18 15 15 18 20 21 13 6 10 21 23 20 25 24 21 22 23 23 23 23 24 28 30 30 30
22 24 24 26 24 24 21 21 20 21 17 17 15 13 16 17 20 21 24 21 19 19 22 23 25 24 23 22 20 22 22 23 23 24 24 27 30 31
23 25 26 25 23 19 19 18 18 14 14 15 16 17 16 16 15 17 19 22 20 22 26 27 26 26 25 23 22 22 22 22 23 24 24 23 24 24
23 21 19 20 16 15 14 14 14 14 14 16 19 19 20 15 17 21 22 22 16 20 23 23 28 27 25 25 25 22 22 22 20 22 23 25 26 26
22 17 13 10 14 13 14 16 18 20 19 19 20 20 19 20 20 20 23 23 19 17 19 20 23 24 25 24 23 23 22 23 25 26 26 25 26 27
20 15 12 14 15 14 15 15 17 19 20 21 21 23 22 22 21 23 23 19 19 18 18 18 15 16 19 22 26 24 24 24 25 26 26 25 24 25
14 14 13 13 14 15 14 12 11 15 13 20 23 22 22 22 20 19 18 19 19 18 18 18 8 11 16 14 19 22 21 21 22 22 24 24 23 24
11 11 12 13 13 13 11 10 11 14 14 15 13 20 21 21 19 18 17 16 16 17 17 18 18 18 16 15 17 20 23 21 21 21 21 23 24 27
13 13 13 13 13 12 11 8 6 9 10 7 7 10 10 9 14 15 16 20 20 18 18 18 20 24 23 23 19 17 19 23 23 22 21 22 22 22
11 13 13 13 11 8 7 6 7 11 11 10 10 9 10 9 12 14 15 15 16 17 17 18 19 20 20 19 17 16 18 20 22 24 25 25 23 20
13 13 13 11 8 6 4 6 8 10 11 11 11 12 10 11 14 15 16 17 17 17 17 17 18 20 20 19 20 19 19 19 20 20 21 25 26 28

GFSNE_sfc_dewp_051.txt.gz
Dewpoint
56 55 53 51 50 51 51 50 48 44 43 43 40 40 41 41 44 46 46 48 49 49 48 49 47 47 47 47 47 47 47 48 48 47 46 44 43 44
51 52 52 50 49 49 48 48 48 47 43 42 39 39 41 42 44 44 45 48 48 47 47 46 46 46 46 46 46 45 46 47 46 46 45 44 43 43
45 45 43 44 43 43 43 43 43 43 42 40 37 37 38 41 41 40 43 41 44 46 46 46 46 45 45 44 44 45 45 43 43 42 42 42 42 42
42 42 40 41 40 40 40 39 39 40 39 38 35 35 36 37 38 38 40 40 39 40 43 43 43 43 43 44 43 41 40 41 39 38 38 39 40 40
37 37 37 38 37 38 37 37 37 37 36 36 34 34 34 35 34 35 36 37 38 38 40 42 42 42 42 42 42 40 37 35 36 36 38 38 38 38
37 37 36 36 36 36 35 35 35 35 35 35 34 33 34 34 34 34 33 35 35 37 38 38 37 35 36 35 34 34 34 35 35 36 36 36 36 36
36 36 38 40 39 38 35 34 34 34 34 34 34 34 33 33 32 34 32 33 33 33 28 27 25 25 25 28 29 30 31 32 34 34 34 34 35 36
33 33 34 35 36 39 39 38 37 33 33 32 32 30 31 31 32 31 29 26 22 25 23 22 24 23 24 25 29 30 31 32 32 33 35 35 34 35
26 25 30 31 31 28 31 32 31 32 33 30 26 25 24 24 23 21 23 20 21 23 24 23 24 23 24 24 29 31 31 32 33 33 34 34 34 34
24 18 19 21 25 27 25 25 26 24 27 26 26 25 25 25 24 21 22 22 24 25 25 18 22 22 23 23 29 30 31 32 32 33 33 33 33 34
23 22 22 24 28 30 25 24 24 23 25 29 28 27 27 27 26 24 22 16 18 21 23 22 21 22 23 23 24 29 30 29 29 29 31 31 32 33
18 20 27 27 28 28 24 23 22 22 23 23 20 20 21 19 21 23 20 10 10 12 20 19 21 22 17 20 23 23 23 26 28 29 30 30 31 29
20 22 24 27 27 26 25 21 22 23 21 19 18 17 14 16 20 23 21 11 5 9 20 20 11 24 23 21 22 23 22 23 23 24 28 29 30 30
22 22 24 27 25 24 20 21 22 21 15 14 14 14 17 17 19 20 22 20 18 17 20 16 17 19 23 22 21 21 22 23 22 23 24 27 30 30
23 24 24 23 25 21 19 19 18 14 13 14 15 16 15 16 15 16 19 21 18 21 25 16 19 22 25 22 21 21 22 22 23 23 23 23 23 23
23 21 20 17 16 16 15 14 15 15 15 16 18 19 20 15 18 24 22 22 21 19 22 18 16 21 24 24 24 22 22 20 19 19 20 24 26 26
23 19 13 10 14 12 14 15 17 19 18 18 19 20 20 21 21 22 22 23 20 17 18 19 22 21 21 21 21 22 21 22 24 24 24 25 26 26
21 17 14 14 14 11 13 14 16 18 18 17 18 22 22 22 22 22 24 16 16 17 17 16 13 13 17 19 24 21 22 22 23 24 24 24 23 25
13 14 14 13 13 14 14 11 10 13 9 11 11 13 20 22 20 19 18 16 17 17 17 13 5 11 14 13 18 23 21 22 21 21 22 22 21 23
12 11 12 13 13 12 11 10 10 12 11 12 8 7 9 12 17 17 16 14 14 15 15 15 17 18 15 14 15 19 22 21 20 19 20 21 23 26
16 14 13 13 12 11 11 8 5 8 8 5 3 3 7 3 12 12 13 18 18 16 15 15 17 23 22 21 18 17 19 23 23 21 21 21 21 21
13 13 13 13 12 8 7 6 6 9 9 8 8 7 8 6 10 11 13 12 14 15 15 16 17 14 15 18 16 16 17 19 22 23 24 24 22 20
13 13 13 11 8 6 4 5 7 8 9 9 8 9 7 8 11 13 14 15 16 15 15 16 17 19 18 18 19 19 18 18 19 19 21 24 25 27

GFSNE_sfc_dewp_054.txt.gz
Dewpoint
55 55 54 53 51 51 51 50 49 44 44 43 42 39 40 41 43 44 44 47 49 51 53 53 52 51 50 49 49 49 49 48 48 48 48 48 48 49
50 48 47 47 47 46 47 47 47 46 44 42 40 39 40 42 44 43 45 46 47 49 52 51 50 49 48 48 48 48 47 46 47 48 47 47 48 48
43 43 42 43 42 42 43 43 43 43 42 41 38 38 38 40 40 41 42 43 44 49 49 47 47 46 46 47 46 46 45 46 47 46 46 47 46 46
39 40 39 40 40 40 40 39 39 40 39 38 35 36 36 37 38 39 40 40 40 42 44 44 44 44 44 44 44 44 44 43 42 43 43 41 40 40
35 35 35 35 34 36 37 37 37 37 37 37 35 35 34 35 35 35 36 37 38 39 39 40 41 43 43 44 43 43 43 42 40 38 37 37 38 39
37 38 37 35 33 33 34 35 34 35 35 35 34 34 34 34 35 34 34 36 35 38 39 39 40 40 39 39 38 36 35 35 36 36 36 37 37 37
35 36 37 39 39 38 36 35 35 34 34 34 33 33 33 32 32 33 32 32 33 34 30 28 26 26 25 28 28 29 30 30 32 34 35 35 35 35
32 32 33 33 33 37 36 37 36 32 30 25 25 27 27 27 27 27 25 22 21 24 23 22 23 23 24 24 29 29 30 31 32 31 32 33 34 35
24 24 28 30 28 25 29 30 30 31 31 28 25 24 23 23 21 20 22 19 20 23 24 23 24 23 24 24 28 30 31 32 33 33 34 33 33 34
19 16 17 19 25 26 25 25 25 23 28 25 25 25 25 24 24 21 22 21 24 24 24 16 22 21 22 23 28 30 31 32 32 33 32 32 33 35
21 23 24 25 29 30 25 24 22 23 25 28 28 27 27 27 26 24 19 15 18 21 22 21 21 22 23 23 23 30 31 30 30 30 31 31 32 32
19 21 27 27 27 27 24 22 20 21 23 21 19 19 19 17 21 23 19 9 10 11 19 18 20 21 16 20 22 22 23 26 27 29 30 31 31 29
20 22 23 27 26 25 25 19 21 22 21 16 16 15 15 20 22 23 21 10 4 8 19 18 7 18 20 19 22 22 22 22 23 24 27 29 30 30
21 22 24 26 26 25 20 20 21 17 13 13 13 15 17 17 18 19 21 20 18 16 19 15 10 12 9 18 20 21 21 22 22 23 24 26 29 30
23 24 25 22 22 19 18 19 18 14 13 14 15 15 15 15 14 15 18 21 18 20 25 14 12 10 19 20 21 21 23 22 22 22 23 22 23 23
23 22 22 17 16 16 14 15 16 17 17 16 17 19 20 14 16 24 23 18 18 18 21 16 11 13 21 22 22 21 22 22 18 18 20 22 24 24
24 20 16 11 13 11 13 15 16 17 17 18 18 19 20 21 21 23 23 22 21 13 17 19 21 19 18 18 18 19 20 20 22 22 23 24 25 25
22 19 16 14 13 10 11 12 14 16 17 16 14 14 16 17 18 21 23 22 16 16 16 15 12 12 14 18 23 19 19 20 21 22 23 23 23 24
16 13 14 14 13 14 14 13 10 13 8 8 6 6 10 11 19 14 17 18 15 16 16 12 3 7 12 11 17 23 20 20 21 21 22 21 21 22
15 13 13 14 14 13 12 12 11 11 10 10 5 3 3 4 10 15 16 11 12 13 13 10 10 14 14 13 15 18 22 20 19 19 19 21 22 25
17 16 15 14 13 13 13 11 7 7 7 4 1 1 4 -1 8 10 11 18 18 15 14 14 16 22 22 20 16 16 18 22 23 21 20 20 20 20
14 14 14 15 14 12 8 7 7 8 8 7 7 5 6 4 7 9 11 10 12 14 14 15 16 14 15 16 14 15 17 19 22 23 24 24 22 19
14 14 13 13 12 10 5 6 8 8 7 7 7 7 5 6 10 12 13 14 15 15 14 14 15 17 16 16 18 18 18 18 19 19 20 24 25 26

GFSNE_sfc_dewp_057.txt.gz
Dewpoint
54 54 54 52 52 52 52 52 50 46 46 46 45 42 42 43 44 43 44 45 47 48 49 50 52 53 53 53 52 51 50 49 49 49 49 50 50 50
49 49 48 48 47 47 48 48 49 48 45 45 42 41 41 42 44 44 45 46 47 48 48 48 52 51 50 49 49 48 49 48 48 48 49 49 49 48
44 44 43 43 43 43 44 44 45 45 45 43 40 39 40 40 40 42 43 43 43 46 49 49 48 47 47 46 46 46 45 45 46 47 49 48 48 48
40 40 40 40 40 40 41 41 40 40 42 40 38 38 38 38 38 39 40 40 40 42 44 44 44 44 44 44 43 44 43 44 45 45 44 46 46 45
37 37 37 37 37 38 38 38 38 38 39 39 38 37 37 36 37 37 37 38 38 40 41 41 42 42 43 43 44 44 44 43 43 42 42 42 42 41
39 39 37 36 36 37 37 37 37 37 37 37 36 36 36 35 36 35 35 37 36 37 37 38 39 39 39 39 39 37 35 36 38 39 39 38 38 38
35 36 36 39 39 38 36 36 36 36 36 36 35 34 33 33 32 33 32 32 32 28 27 27 27 28 30 29 28 29 30 31 31 33 34 35 36 35
34 33 32 31 33 35 36 36 35 33 33 32 31 29 28 27 26 27 27 26 25 26 24 23 25 24 24 24 27 29 30 30 31 31 32 32 34 34
31 32 31 29 28 28 29 29 30 31 31 29 27 27 25 25 27 27 26 26 24 24 24 21 24 20 20 21 27 30 30 31 32 32 33 34 34 34
27 26 29 29 31 27 27 26 25 28 28 26 27 27 27 27 27 28 26 26 24 24 25 22 22 20 22 23 27 30 31 32 32 33 33 32 33 34
24 26 27 27 29 28 25 24 20 23 26 27 27 26 26 25 26 27 26 25 19 20 22 22 21 21 22 22 23 28 30 31 31 31 31 32 32 33
20 22 27 27 26 28 24 20 20 22 24 20 16 16 17 18 23 21 25 24 23 21 20 23 21 22 23 21 22 23 23 26 27 29 31 30 32 31
20 21 23 27 25 24 25 18 20 23 20 14 13 14 19 21 22 23 22 25 24 23 20 26 26 24 24 24 21 21 22 23 23 24 26 28 29 29
20 22 24 24 23 25 21 19 23 16 13 12 13 15 19 22 24 24 24 25 24 25 25 25 25 25 24 22 21 21 22 24 25 25 27 27 28 29
22 24 24 21 19 17 18 19 17 14 13 15 16 20 22 23 24 24 25 25 25 25 26 26 25 24 23 22 22 22 23 24 26 27 27 27 27 26
23 24 23 19 16 16 13 14 15 16 19 19 19 19 21 23 23 23 22 22 23 23 25 25 24 23 23 23 23 22 24 24 25 25 26 26 26 25
25 22 20 16 13 10 11 13 15 15 18 20 20 19 18 20 21 22 21 22 21 22 22 22 23 24 23 23 21 21 20 22 25 26 25 25 25 26
23 21 20 16 14 11 10 10 12 15 16 19 19 20 20 21 21 21 22 22 20 20 20 20 20 19 19 21 25 22 22 23 24 25 25 24 24 26
21 20 17 15 14 14 14 15 15 16 18 17 18 19 19 18 19 19 19 20 19 19 19 20 19 17 17 17 19 25 25 25 24 24 24 24 25 26
20 19 18 16 15 16 16 16 16 16 15 16 17 17 16 16 17 18 18 18 18 18 18 19 18 18 17 18 20 21 22 24 24 24 24 25 26 26
17 18 18 18 17 17 17 17 17 16 16 16 16 15 16 15 15 16 16 18 19 19 18 19 21 22 23 23 19 18 21 22 24 25 25 23 21 21
14 16 16 18 18 18 18 16 15 14 15 15 15 15 15 15 14 14 15 15 16 16 18 20 20 20 20 18 17 18 18 20 22 23 24 25 24 21
17 16 17 18 18 17 16 15 14 16 16 15 15 16 15 14 14 15 15 16 16 17 17 17 18 19 19 18 19 19 20 20 21 22 23 24 25 26

GFSNE_sfc_dewp_060.txt.gz
Dewpoint
54 54 53 51 53 54 54 53 52 48 48 49 48 44 45 45 45 45 46 46 47 47 48 48 48 50 52 54 54 53 52 51 50 49 49 50 50 50
51 50 49 49 49 50 51 51 50 50 47 47 45 43 42 43 43 44 44 45 46 47 50 50 49 51 51 50 50 49 49 49 49 48 48 49 49 49
46 46 45 46 46 46 48 47 47 48 46 43 42 42 42 42 42 42 43 43 44 45 46 47 47 48 48 48 47 47 47 46 46 46 47 47 48 49
42 43 42 42 43 43 44 44 44 44 45 44 41 42 41 40 40 40 40 40 41 41 43 44 44 44 44 44 43 43 43 43 43 44 44 45 46 46
39 39 39 40 40 41 41 41 41 40 42 41 40 40 39 38 38 38 38 38 38 37 39 40 41 41 41 41 42 42 43 43 43 42 42 42 43 43
39 39 38 38 38 39 39 39 39 40 40 39 38 38 37 36 36 35 36 37 35 33 32 32 34 35 37 37 37 35 35 36 38 39 40 41 41 40
37 37 38 39 38 38 37 38 38 38 38 38 37 36 35 33 33 33 32 31 31 28 27 27 27 28 29 29 29 28 29 31 32 34 35 36 36 38
35 35 34 34 35 36 35 35 33 35 35 35 35 32 31 29 27 27 26 25 26 27 23 21 23 22 23 24 25 29 30 31 31 31 32 32 32 34
35 35 31 28 30 30 29 29 31 31 31 28 25 25 24 25 28 29 27 26 23 22 22 19 19 17 19 18 25 29 31 31 31 32 32 32 34 34
32 33 34 33 31 27 26 26 26 27 28 25 27 27 28 28 28 29 26 25 23 21 23 21 20 20 22 23 25 30 31 32 32 33 33 33 33 33
28 27 26 28 30 27 24 24 19 23 27 27 26 26 26 26 26 26 27 24 19 16 21 22 21 21 21 22 24 26 27 30 31 32 32 33 34 34
19 23 27 27 27 29 24 19 17 20 23 21 17 15 16 18 23 19 23 26 23 24 21 24 23 23 26 22 22 23 24 23 28 29 30 32 32 32
17 18 21 27 26 25 27 17 21 22 21 15 11 13 17 20 21 23 23 29 27 26 23 26 27 26 26 26 23 23 23 24 24 25 27 30 31 31
18 19 21 26 23 25 25 20 23 19 13 11 11 12 17 22 24 25 25 26 26 28 28 28 26 26 25 23 24 23 24 26 27 27 28 28 29 30
20 20 25 23 19 19 19 19 21 13 11 12 13 20 23 25 27 27 28 27 27 27 27 28 27 26 24 23 24 24 24 25 28 30 30 30 29 29
25 25 24 22 18 16 16 15 13 13 14 16 17 17 19 24 23 24 24 24 24 24 28 29 28 26 24 24 25 24 25 25 27 28 29 29 28 27
24 24 23 20 17 12 11 11 12 12 15 17 17 17 16 19 21 23 23 24 23 23 24 25 26 26 25 25 23 22 21 23 28 30 28 27 27 28
25 23 21 20 15 11 9 9 10 14 15 18 20 20 20 21 22 22 23 23 23 22 22 22 23 22 21 23 26 23 23 25 28 28 27 25 25 29
21 22 22 20 17 16 15 17 18 17 21 20 21 22 22 21 20 20 20 21 21 21 21 23 23 21 19 19 22 27 26 26 26 26 27 27 28 29
21 21 23 22 19 19 19 19 19 18 18 19 20 21 21 21 20 20 20 20 20 20 21 22 23 22 20 21 22 24 25 26 26 25 26 27 28 28
19 20 20 20 20 21 21 21 21 20 20 21 21 20 21 21 20 20 20 20 20 20 21 22 25 25 27 25 20 19 23 24 24 25 26 25 23 22
19 19 18 19 21 22 22 21 20 19 19 20 21 21 21 21 21 20 20 20 20 21 21 24 24 23 22 20 18 20 21 23 24 24 25 25 24 22
17 17 20 21 22 22 22 20 19 20 21 22 22 22 22 21 21 20 20 19 20 20 20 20 21 21 21 21 20 19 20 21 22 23 25 25 26 27

GFSNE_sfc_dewp_063.txt.gz
Dewpoint
54 53 52 51 51 53 54 54 52 48 49 49 47 46 45 46 44 45 45 46 47 48 49 50 49 49 51 53 55 54 53 53 53 52 52 50 50 49
52 51 50 50 50 51 51 51 51 51 48 48 45 44 44 43 43 44 43 45 45 47 48 48 50 52 52 52 51 51 51 51 51 50 49 49 49 49
47 47 46 47 48 48 49 49 49 49 47 44 44 43 43 42 41 41 42 41 43 44 45 46 46 47 48 48 48 48 48 48 48 48 48 48 48 48
44 45 44 43 44 45 46 45 45 45 45 44 42 42 41 40 40 39 39 39 41 40 42 43 44 44 45 45 44 44 43 43 43 43 44 44 44 45
41 40 40 41 42 42 43 43 42 41 42 42 40 41 40 38 37 38 38 38 38 36 36 38 39 41 42 42 42 41 42 43 43 43 43 42 42 43
39 39 38 39 39 40 40 40 40 40 40 40 39 39 37 37 37 35 37 37 36 31 32 31 32 34 36 37 36 35 35 36 37 39 40 41 41 41
37 37 39 39 39 38 38 38 37 38 38 38 38 38 35 34 33 34 32 31 32 30 28 29 27 29 30 28 29 28 31 32 33 34 36 37 38 38
35 35 35 36 35 35 35 35 33 34 35 35 34 33 33 30 28 28 28 28 28 28 24 23 24 24 24 23 25 27 29 30 31 32 32 32 33 33
35 36 32 28 31 30 29 28 32 31 30 30 27 26 25 27 30 30 28 28 26 26 24 22 22 20 23 21 27 29 31 32 32 32 32 32 32 33
33 33 34 34 31 28 27 27 27 28 29 26 29 28 29 29 28 28 27 27 26 25 23 24 22 22 24 25 27 30 31 32 33 32 33 33 33 33
30 28 27 29 30 27 26 26 21 25 28 26 25 25 25 25 26 27 28 27 24 17 22 23 24 23 24 23 26 28 27 27 31 32 33 32 33 34
22 25 27 28 27 29 27 21 19 21 24 24 21 20 19 19 22 22 26 24 26 26 23 25 25 24 25 25 23 25 25 26 26 29 31 32 32 31
18 20 22 27 26 25 27 22 23 24 23 19 14 14 17 20 22 23 24 27 25 25 26 26 26 25 25 25 25 25 25 25 26 27 28 28 31 31
19 20 22 26 24 25 27 25 22 24 17 13 13 13 18 24 26 27 26 27 28 26 28 27 22 25 24 23 23 25 26 27 27 27 28 30 31 31
21 20 23 25 22 22 23 23 23 20 13 13 14 22 25 27 26 26 27 27 27 27 27 24 26 26 26 23 22 23 24 26 27 27 27 27 28 28
25 27 26 25 23 20 17 19 19 14 15 17 19 18 20 25 25 26 25 25 25 24 29 27 27 26 23 23 23 23 24 22 25 25 26 27 28 28
24 24 24 23 21 18 16 14 14 14 18 19 19 19 17 21 23 25 25 24 23 23 24 27 27 26 25 23 22 22 22 22 24 25 25 26 27 28
25 24 23 23 21 17 13 12 13 16 19 22 23 23 22 23 23 24 24 23 22 22 22 23 23 23 22 23 25 22 22 22 24 27 26 26 24 26
25 23 24 24 23 21 20 21 21 22 22 23 23 22 22 22 22 21 21 21 21 21 21 22 20 20 19 16 21 26 23 23 23 25 25 25 24 26
23 22 24 25 24 23 23 22 22 22 22 21 22 21 20 21 20 20 20 19 20 20 20 19 19 20 20 18 19 22 27 25 24 23 23 24 26 28
21 23 24 24 24 24 24 24 23 23 23 22 21 20 21 21 20 20 20 21 21 20 19 20 22 26 27 26 22 20 21 24 24 22 21 22 22 21
20 22 22 24 24 25 25 24 23 22 22 21 21 22 22 22 20 20 20 20 21 21 21 22 24 24 23 21 18 19 19 20 23 24 26 26 23 20
24 23 24 24 25 25 25 24 23 23 22 22 23 23 23 22 22 22 21 20 21 21 20 20 21 23 22 22 21 21 21 19 20 20 22 25 26 28

GFSNE_sfc_dewp_066.txt.gz
Dewpoint
53 53 52 51 52 53 54 54 52 48 48 48 44 43 44 44 44 44 44 45 46 47 47 49 51 49 52 53 54 53 54 55 56 57 57 56 55 53
51 50 50 50 50 51 51 51 51 50 48 47 43 42 43 43 43 43 42 44 45 46 47 48 49 50 51 52 52 52 52 52 52 52 52 52 51 51
47 47 46 47 48 47 47 47 46 48 47 43 43 42 41 40 40 41 41 41 43 43 44 46 46 47 47 47 48 49 49 49 49 49 49 49 50 50
45 45 44 45 44 44 44 42 42 41 41 43 41 41 40 37 37 38 38 39 39 39 41 43 43 44 45 45 46 45 44 44 44 44 46 46 45 46
40 39 39 41 39 40 40 41 39 41 40 40 38 39 38 36 36 37 37 35 38 35 35 36 38 39 42 43 42 41 41 43 44 44 43 43 43 43
39 38 38 38 40 39 40 39 39 39 39 39 38 37 37 35 36 34 32 34 32 29 30 31 31 33 35 35 36 35 35 36 37 39 40 40 41 42
38 38 39 39 39 39 38 37 37 36 36 36 36 36 35 34 31 31 28 27 28 27 25 24 25 25 28 30 31 31 31 32 33 34 35 36 37 38
35 34 35 35 35 36 36 34 34 34 33 34 34 32 30 27 27 25 25 22 22 25 22 21 22 20 21 20 24 29 30 30 31 31 32 33 33 34
34 31 30 30 30 28 28 31 31 30 32 28 24 24 25 26 26 25 25 23 24 24 22 20 21 20 23 23 29 28 31 33 33 32 32 32 32 32
32 31 29 28 28 27 26 26 26 29 29 28 28 27 27 27 27 26 25 24 25 24 22 18 21 21 23 24 28 29 29 29 31 33 32 33 33 33
29 29 30 31 30 27 26 23 20 26 28 26 24 24 25 24 24 25 22 20 20 18 22 22 23 23 23 24 26 27 28 28 27 30 33 33 32 33
24 27 27 29 28 29 27 19 18 20 23 22 21 20 19 18 20 21 21 14 18 18 23 21 24 24 19 26 25 25 25 28 27 28 28 31 32 31
19 20 24 27 26 26 26 24 23 23 22 20 14 14 15 19 20 23 24 18 14 15 26 21 14 19 17 20 24 25 25 24 25 27 29 29 30 30
19 20 22 27 26 25 27 27 22 24 20 14 13 12 16 20 22 23 25 24 23 20 24 22 12 13 13 21 20 24 24 25 24 25 25 29 31 31
19 21 23 27 24 22 23 26 23 23 17 13 13 19 20 21 20 20 23 24 23 24 26 18 17 16 23 23 22 22 23 23 24 23 23 23 24 25
27 25 25 27 26 22 19 19 21 19 15 17 19 18 20 19 20 21 19 20 18 21 26 24 21 19 24 24 23 22 21 19 21 22 24 25 26 27
26 24 24 24 23 21 19 17 17 15 17 17 19 18 18 20 23 21 21 18 16 16 19 23 26 23 23 16 18 21 21 21 22 23 21 24 27 27
24 23 23 24 23 21 17 14 14 16 18 19 19 19 18 18 19 19 18 16 15 18 18 18 18 24 21 21 26 22 22 21 22 22 24 26 25 26
24 25 25 25 24 23 21 20 19 19 16 16 14 13 13 14 20 16 16 16 15 15 15 14 11 9 14 17 19 23 21 17 20 23 22 23 23 24
26 25 24 25 25 24 23 21 20 20 19 17 13 13 13 12 12 14 15 13 13 12 12 8 8 8 16 18 16 19 24 16 16 21 22 23 24 26
25 24 24 25 25 25 24 23 21 20 17 16 17 15 14 12 15 16 15 21 20 15 18 19 20 24 24 25 21 20 21 25 24 22 18 21 21 21
23 23 24 25 25 25 24 23 23 23 21 18 18 18 20 18 19 17 16 16 18 20 21 23 24 24 23 21 19 18 18 20 22 24 24 24 23 21
25 24 24 25 26 26 26 25 24 24 23 22 21 21 21 20 21 22 22 22 21 21 20 20 21 22 22 21 20 20 20 19 20 20 21 25 25 26

GFSNE_sfc_dewp_069.txt.gz
Dewpoint
52 50 52 52 51 53 54 54 53 48 49 46 44 44 44 44 45 44 44 45 47 47 47 49 51 53 54 54 54 54 55 55 56 57 58 58 57 56
49 50 50 50 50 50 51 51 52 51 48 46 43 44 44 42 43 42 43 43 45 45 46 47 48 49 51 52 53 53 53 54 54 55 55 55 54 52
46 47 47 48 48 47 47 47 47 47 47 43 43 42 40 40 40 41 41 41 43 42 43 45 45 47 48 48 48 48 49 49 50 50 50 50 50 51
45 46 44 45 44 44 44 43 41 40 43 42 42 41 39 38 36 38 39 39 39 38 39 41 42 43 44 45 45 46 46 46 45 46 47 48 47 46
40 40 41 41 40 39 40 41 41 40 37 37 38 39 38 37 37 37 37 35 37 35 34 35 36 39 40 42 41 41 41 43 43 44 44 44 44 44
38 38 38 38 38 39 40 40 40 39 39 38 38 37 36 36 36 31 31 31 30 27 28 31 32 34 33 36 35 35 35 36 37 39 40 40 41 41
39 38 38 39 40 39 38 38 38 37 36 36 36 36 36 34 30 30 27 26 27 25 23 22 23 24 27 32 31 29 30 30 31 33 35 36 37 38
36 35 36 36 37 37 36 36 35 35 35 34 32 31 29 27 27 25 24 22 22 25 21 20 22 19 20 20 25 28 29 31 31 31 31 32 33 34
33 31 30 32 30 28 31 31 30 33 33 30 25 24 25 26 26 25 25 22 23 24 21 17 21 20 23 23 28 28 31 31 34 33 32 31 32 32
32 28 27 27 27 27 26 27 28 28 28 27 27 27 27 27 27 27 25 24 24 23 21 18 21 22 23 23 29 28 28 29 29 32 32 32 33 33
29 30 31 28 28 27 25 24 23 27 27 27 27 26 26 25 26 24 23 20 20 18 23 21 23 24 24 25 24 29 28 28 27 28 30 33 33 33
27 27 31 31 32 29 25 20 18 21 23 22 20 20 19 19 22 22 22 13 16 17 22 20 23 23 18 24 26 25 25 28 29 28 29 29 30 30
21 23 25 30 29 28 29 21 22 23 24 19 15 14 15 19 21 23 24 17 12 14 25 19 12 18 16 19 23 24 25 25 25 26 29 30 30 30
19 20 23 28 28 28 27 28 24 25 19 15 13 12 16 20 23 23 24 23 23 20 24 18 11 12 8 12 19 23 23 24 24 24 24 27 29 30
20 22 27 28 27 24 24 26 27 24 19 14 14 20 22 23 21 20 22 23 22 24 26 16 15 10 12 11 14 19 22 22 23 20 21 22 23 24
26 25 24 27 27 24 21 20 21 22 19 17 18 18 22 20 22 21 18 20 17 20 25 23 18 16 11 18 21 22 22 18 19 20 22 23 24 26
29 25 24 25 24 23 21 19 19 19 19 18 19 18 17 21 23 20 20 17 15 15 18 22 25 22 21 15 19 21 21 20 20 21 19 20 23 25
28 23 23 24 24 23 21 19 17 18 19 21 21 21 21 20 20 19 17 14 13 15 15 17 18 24 24 23 26 23 22 20 20 20 21 16 23 24
24 24 24 25 25 25 23 22 21 20 23 21 20 19 17 15 21 16 15 15 13 13 13 12 7 7 7 16 20 26 21 13 16 20 21 20 21 23
23 24 25 26 26 25 24 23 22 22 21 21 19 17 16 17 16 12 12 9 9 10 12 7 5 5 13 15 14 19 24 13 14 19 20 21 22 25
23 25 27 26 25 26 26 25 23 22 22 20 20 19 17 15 17 17 14 21 19 14 16 15 15 24 21 22 19 19 20 24 24 21 18 20 21 20
25 25 26 26 26 27 27 25 24 24 25 22 21 21 20 18 19 19 18 16 16 17 18 19 23 24 23 21 18 18 18 19 22 23 24 24 22 19
25 25 25 26 27 25 23 23 24 24 23 23 22 21 21 21 22 21 20 20 21 21 21 21 21 21 20 20 20 20 18 18 19 19 20 24 25 26

GFSNE_sfc_dewp_072.txt.gz
Dewpoint
51 51 52 50 50 52 53 53 53 48 49 46 44 44 44 45 45 44 44 46 46 47 47 48 49 52 53 54 54 54 54 56 57 57 59 59 59 58
49 48 47 48 48 50 51 52 52 52 48 46 44 44 44 43 43 43 43 44 44 45 46 46 48 49 50 51 51 52 52 53 54 56 57 57 57 55
45 45 46 47 48 47 48 48 47 47 48 43 43 42 40 40 40 41 41 41 42 42 44 44 44 46 48 48 48 48 48 49 50 51 52 52 53 52
45 44 44 45 44 44 45 44 42 42 44 42 42 40 39 38 38 39 39 39 39 38 39 41 41 42 44 45 45 46 46 46 46 47 48 48 48 48
41 42 41 43 41 41 42 42 41 40 40 40 38 39 38 37 37 37 37 35 36 33 34 34 36 38 39 40 41 41 41 43 43 44 45 45 45 45
38 38 39 40 40 40 40 40 40 40 40 38 38 37 37 36 36 32 34 30 29 25 27 30 33 35 34 35 36 35 35 36 37 39 40 40 42 42
39 38 38 39 40 40 39 38 39 38 37 37 36 36 36 34 30 31 28 26 26 24 23 22 22 22 29 32 30 29 29 30 31 33 35 36 37 38
37 36 37 37 38 38 37 37 36 36 35 36 34 33 30 29 27 25 25 23 23 25 21 19 21 19 20 19 26 28 30 33 33 31 31 31 33 33
35 34 33 33 31 28 33 32 33 35 33 33 30 28 26 26 26 26 25 23 23 24 22 16 22 21 23 23 29 29 31 31 33 33 32 31 31 32
33 31 26 26 28 27 27 28 27 28 28 27 27 27 27 27 27 26 25 24 24 23 21 18 22 22 23 24 30 28 29 29 29 30 33 32 33 32
31 28 27 26 29 28 26 26 25 27 28 30 30 30 31 30 27 26 24 22 20 19 23 21 22 23 24 25 24 30 30 29 27 28 29 31 33 33
29 29 34 30 31 29 25 21 20 23 25 23 22 20 19 20 23 22 24 19 21 20 22 21 22 22 17 23 25 25 25 30 30 30 31 30 30 29
25 26 27 33 32 31 27 20 20 23 25 21 16 15 15 19 22 23 24 21 16 17 25 20 12 17 15 18 22 24 24 24 24 25 28 30 31 30
20 22 25 30 30 29 28 27 26 25 20 16 13 12 16 21 24 25 25 25 24 22 25 19 11 12 7 11 18 22 22 23 23 24 23 26 27 28
19 22 25 29 29 27 27 29 29 24 20 15 14 19 21 23 23 25 25 25 22 23 25 15 15 9 9 10 12 17 22 22 22 19 21 21 22 23
25 25 26 28 28 25 24 22 23 23 21 18 17 16 22 24 24 24 21 21 17 21 25 22 14 13 9 15 15 17 21 18 18 18 20 22 23 24
28 25 24 24 26 25 23 21 19 21 23 19 19 18 18 23 24 23 21 16 16 16 19 22 24 21 19 15 21 22 21 20 20 19 19 19 21 23
30 25 23 24 24 24 23 21 19 20 21 23 23 22 21 22 22 21 18 15 15 16 15 17 17 22 22 21 26 23 23 22 19 19 20 15 20 22
29 26 24 23 23 24 24 23 22 22 23 22 22 21 21 21 22 21 20 20 18 18 15 14 7 9 10 15 21 27 23 14 15 18 19 20 19 21
27 25 25 25 25 25 25 25 24 22 20 21 20 21 20 20 20 20 18 17 18 17 17 13 7 9 12 14 16 21 25 14 12 17 19 21 22 25
24 25 25 25 25 26 26 25 24 22 20 20 21 19 17 16 18 20 17 20 20 18 18 18 16 22 17 21 17 19 21 24 23 16 14 18 20 20
23 24 25 27 27 26 26 26 25 24 23 21 20 19 19 17 17 19 20 19 19 19 19 21 21 20 23 21 17 17 18 20 21 23 23 23 22 18
26 26 26 27 27 27 27 25 24 24 23 23 21 21 19 17 20 21 22 21 21 20 20 21 22 23 21 20 19 19 18 18 19 19 20 23 24 25

GFSNE_sfc_dewp_075.txt.gz
Dewpoint
49 49 50 50 50 51 51 52 51 47 48 46 43 44 45 45 45 45 45 46 46 47 47 49 49 50 52 54 54 55 55 56 57 57 57 59 59 59
48 47 46 47 47 49 49 51 52 51 48 46 44 44 44 44 44 43 43 44 44 45 45 46 47 49 49 50 51 51 52 53 54 56 58 58 58 57
45 45 45 46 46 46 47 48 48 47 48 42 43 43 42 42 41 42 41 41 41 42 43 44 43 45 47 48 49 49 49 50 51 53 54 55 55 55
44 44 44 45 44 43 45 44 44 43 45 42 41 41 39 39 39 39 40 38 38 38 40 40 41 43 45 45 45 46 46 47 48 49 50 49 50 50
40 42 41 42 42 42 42 42 42 41 41 41 38 39 38 38 38 37 37 35 33 32 34 35 37 37 40 40 40 41 41 42 43 44 45 46 46 46
37 37 39 40 40 40 41 41 40 40 40 40 38 37 37 36 37 33 35 31 29 24 27 30 32 36 36 35 34 33 34 35 37 39 40 41 42 42
39 38 39 40 40 40 39 39 39 39 38 37 36 36 36 35 32 31 30 27 26 25 23 22 22 22 28 31 29 30 31 31 31 33 35 37 37 38
38 38 38 39 39 39 38 37 37 37 36 36 35 34 33 31 28 27 26 24 23 25 21 19 21 19 20 20 28 29 32 34 34 33 31 32 33 34
37 35 34 35 32 31 33 34 35 36 35 34 33 29 28 28 27 25 25 25 22 24 22 16 22 21 23 23 30 29 31 31 32 34 32 31 31 32
34 33 33 30 27 28 27 27 27 27 27 26 27 26 27 27 27 27 26 24 24 23 21 18 22 22 23 24 31 28 29 29 29 30 33 32 33 33
32 30 28 25 27 29 26 27 26 28 31 32 32 32 32 31 29 27 25 23 21 19 22 20 22 23 24 25 24 31 31 30 28 29 29 31 33 34
30 29 31 27 30 29 24 23 24 25 25 23 22 22 19 21 28 23 25 19 21 20 23 22 23 22 19 22 25 25 25 30 30 31 31 31 31 29
27 26 27 34 33 31 28 22 21 23 26 21 17 15 16 20 22 22 23 21 19 20 25 23 19 21 19 20 21 23 24 23 23 25 26 27 30 30
23 24 26 31 33 32 30 27 25 25 23 18 14 13 17 21 24 25 25 25 25 24 27 24 17 16 10 15 17 21 22 23 23 23 23 25 25 26
20 22 26 28 31 30 30 31 29 24 20 17 15 20 22 23 25 25 26 26 25 26 26 21 19 11 13 14 14 17 21 22 22 19 21 21 21 22
26 24 26 27 30 27 26 25 26 25 22 19 17 16 23 24 24 25 25 24 23 24 26 25 19 16 13 16 16 16 16 15 18 18 20 21 22 23
26 23 24 25 26 26 24 21 20 22 25 21 19 19 19 24 25 25 24 22 20 20 23 24 26 22 20 17 20 21 21 20 20 18 19 18 21 22
29 24 23 24 24 25 24 23 21 22 22 23 22 22 21 22 22 22 22 20 20 20 20 20 21 20 22 22 25 23 23 22 19 19 20 17 19 21
32 29 25 24 24 25 24 24 22 22 23 22 22 20 20 21 22 22 21 21 20 20 20 19 16 16 15 15 21 27 23 15 15 18 19 19 18 21
28 29 28 27 25 24 24 24 24 23 22 22 21 19 19 18 17 19 19 18 18 18 17 16 13 10 13 12 16 23 26 17 15 17 14 20 21 25
26 27 27 26 26 26 25 25 24 23 22 20 19 20 18 17 17 19 18 21 19 17 17 19 21 24 17 17 17 19 22 24 23 14 12 17 20 20
24 25 26 26 26 25 25 25 25 25 25 22 21 20 17 16 17 18 18 17 18 19 20 22 23 20 17 17 18 19 19 21 22 23 23 23 21 18
25 25 25 27 28 28 27 26 26 26 25 24 23 20 19 18 18 20 20 20 21 20 21 20 22 23 21 22 20 19 20 20 19 19 20 23 24 25

GFSNE_sfc_dewp_078.txt.gz
Dewpoint
47 48 49 50 50 49 50 51 49 45 46 45 45 44 46 45 46 45 46 47 47 47 46 48 48 48 51 52 53 53 54 55 56 57 57 58 59 60
48 48 47 47 47 47 49 50 50 48 45 46 44 44 45 44 45 43 44 45 44 44 45 45 46 47 49 50 51 51 52 53 54 56 57 57 58 59
44 44 45 45 45 46 48 47 47 48 47 43 43 43 43 43 42 42 42 41 41 42 43 43 43 44 46 47 48 49 49 50 52 52 53 55 57 58
43 43 43 45 43 43 43 43 44 44 45 43 41 41 40 40 40 40 40 38 37 37 40 40 41 44 44 43 44 45 46 46 47 49 50 51 53 53
39 40 41 41 40 41 42 43 42 41 42 42 39 39 38 38 38 38 37 36 30 32 35 37 38 38 41 40 39 39 40 42 43 44 45 47 47 47
37 37 38 41 41 41 41 41 41 40 41 40 39 38 37 37 37 35 35 32 29 24 27 30 32 36 36 36 33 32 33 35 38 40 41 42 43 43
39 38 39 40 41 41 40 40 40 39 38 37 37 37 36 35 34 33 33 28 26 25 24 22 23 22 28 27 29 31 32 33 32 34 36 38 39 39
39 38 40 40 40 40 39 38 38 38 37 36 36 36 35 34 31 30 27 23 24 26 22 19 21 20 21 24 29 30 33 34 34 33 31 33 34 35
37 36 36 36 33 33 35 35 36 36 36 35 35 33 32 30 28 25 25 25 23 25 23 18 22 20 23 23 30 30 31 30 33 34 32 31 32 32
35 35 34 32 31 30 27 27 26 28 27 26 29 28 28 28 28 27 26 25 24 23 21 20 21 21 24 24 31 29 29 30 29 31 33 33 33 35
33 33 32 30 31 31 26 26 26 27 32 32 33 32 32 31 29 26 26 23 22 20 22 20 22 22 23 25 25 32 31 31 28 30 31 32 33 35
33 30 34 26 27 31 24 24 24 25 25 23 22 21 22 26 30 24 27 24 23 22 22 23 23 22 21 23 25 25 25 30 31 31 31 31 31 29
31 30 29 34 31 32 29 22 22 25 27 21 17 16 17 22 22 22 25 23 19 20 25 23 22 24 22 23 21 23 24 24 23 24 26 28 29 29
28 27 26 31 34 34 32 27 25 27 25 19 15 13 16 21 24 25 25 25 25 24 27 24 20 22 20 17 19 21 22 23 24 24 24 26 25 25
22 24 27 30 33 33 32 32 28 23 20 18 16 20 23 24 25 25 26 26 26 27 27 25 25 17 16 15 18 19 22 22 23 21 22 22 22 23
28 25 26 27 29 30 29 28 28 25 22 20 18 16 22 23 24 25 24 24 23 24 28 25 21 19 15 17 17 16 19 18 20 20 22 22 22 23
26 23 24 24 26 26 24 23 21 24 26 22 20 17 18 24 25 25 24 22 18 19 23 25 26 23 22 20 20 21 21 20 19 18 20 19 21 22
27 23 22 24 25 25 25 24 22 22 23 25 22 21 21 23 23 23 21 20 19 19 20 22 23 21 22 24 25 22 23 22 19 19 20 18 20 21
30 27 25 24 24 24 24 24 23 23 23 22 22 21 20 19 22 20 19 18 18 18 17 18 15 15 13 15 22 27 22 20 18 20 19 19 18 23
31 31 29 27 25 25 25 24 24 23 22 22 21 18 18 18 15 18 19 15 13 14 14 9 9 6 10 12 12 22 27 19 16 18 18 21 22 25
29 30 30 29 28 27 26 25 24 24 23 21 21 19 18 13 15 17 16 20 18 11 12 13 15 21 14 12 13 18 22 24 25 17 15 17 20 20
30 28 28 28 28 27 26 26 24 25 25 22 21 20 19 17 15 16 17 16 16 16 15 15 22 23 14 15 15 17 20 24 26 27 26 23 19 17
30 26 27 27 27 26 26 25 25 25 25 25 23 22 19 16 18 19 18 18 16 16 16 18 21 22 18 19 19 18 19 21 22 21 21 23 24 25

GFSNE_sfc_dewp_081.txt.gz
Dewpoint
50 50 50 51 52 53 53 53 49 44 44 48 47 46 48 48 47 46 48 48 48 47 47 47 48 49 49 51 52 53 54 55 55 56 57 58 58 58
49 50 50 51 51 51 51 51 51 48 45 49 46 46 46 45 46 44 45 45 45 46 46 45 46 47 49 50 50 51 51 53 54 55 57 57 58 58
47 48 48 48 48 49 50 50 50 50 46 46 45 45 44 44 43 43 43 42 43 43 43 43 44 45 46 47 48 48 49 50 52 53 55 56 58 59
45 45 45 45 47 47 48 47 46 47 47 46 43 42 41 42 42 41 41 39 38 39 41 40 42 43 43 43 44 45 45 46 48 50 51 52 54 55
41 42 44 44 44 44 44 45 45 43 44 45 42 42 41 40 39 39 38 37 30 35 36 39 39 40 41 39 38 39 40 42 44 45 46 47 48 50
40 40 40 42 42 43 42 43 43 42 42 42 41 40 39 38 39 37 36 35 31 25 28 30 32 37 37 34 33 33 34 36 39 41 42 43 44 45
39 39 40 40 41 41 41 41 41 41 41 40 39 39 37 36 36 35 35 32 28 28 27 25 24 24 31 28 30 32 34 35 33 35 38 39 40 41
40 39 40 41 41 41 40 40 39 39 39 39 39 37 37 36 33 33 31 30 33 28 25 23 22 21 22 28 30 31 32 34 35 32 32 34 36 37
40 40 38 37 36 37 38 37 37 35 37 37 37 36 34 33 32 30 29 30 26 26 24 21 22 20 23 23 31 30 31 31 34 33 31 31 32 33
37 37 37 35 33 33 30 29 28 29 28 28 33 32 32 32 32 32 30 28 26 24 23 23 21 21 24 25 31 30 30 30 30 34 33 33 34 34
37 36 35 33 34 34 28 27 27 29 32 33 32 31 32 31 29 28 28 28 24 21 23 20 21 22 23 25 28 33 31 31 29 31 32 33 35 35
34 33 36 32 35 34 26 25 24 25 26 27 27 24 28 32 30 26 28 29 25 24 22 24 22 22 23 24 26 26 26 31 32 32 31 32 32 31
34 33 31 37 31 31 30 24 23 25 27 22 19 17 19 24 23 22 27 29 27 26 24 26 27 25 26 25 22 24 25 25 24 25 26 28 29 30
33 33 31 35 35 33 33 28 26 27 26 22 18 15 16 20 24 26 25 26 26 28 29 29 28 27 26 24 23 21 23 24 25 25 26 27 25 25
31 31 32 32 33 34 35 33 28 26 24 21 18 19 21 23 27 27 28 27 27 28 29 29 29 26 26 25 24 23 24 23 26 27 26 26 25 25
28 28 28 29 31 33 33 32 28 25 22 21 19 17 20 24 24 26 25 26 26 26 28 28 26 25 25 25 25 24 25 26 25 25 26 26 25 24
29 25 25 25 26 28 28 27 27 28 27 24 21 17 16 21 22 25 26 26 23 23 24 26 27 26 26 26 24 23 21 23 25 26 25 24 24 25
27 23 22 24 25 26 26 24 23 25 26 28 25 24 21 23 24 25 25 25 23 22 23 25 26 25 24 24 26 23 23 24 25 26 25 24 23 25
30 26 26 24 25 26 27 27 26 25 27 26 27 26 25 24 24 24 24 24 23 22 23 24 24 23 21 17 20 27 25 25 25 24 25 24 25 26
34 29 28 27 25 26 27 27 27 26 25 25 25 25 25 25 23 23 23 22 22 22 22 23 22 23 22 20 20 22 26 27 26 25 25 24 24 25
33 32 32 30 29 28 28 28 28 27 27 26 26 25 24 23 22 22 22 22 21 21 21 21 23 23 22 21 21 20 22 25 27 26 25 23 22 21
33 33 33 32 31 30 30 29 28 28 28 26 25 26 25 23 22 21 20 20 21 23 22 22 23 24 22 21 21 21 21 22 24 26 28 26 24 21
33 33 33 32 31 31 30 29 28 28 28 28 27 26 25 23 22 21 21 20 20 20 20 21 23 24 23 21 21 21 21 21 22 23 23 25 26 27

GFSNE_sfc_dewp_084.txt.gz
Dewpoint
53 53 51 51 52 53 52 51 49 45 44 45 47 49 49 49 49 48 49 49 48 48 48 47 47 49 50 51 52 52 53 54 54 55 57 57 56 57
50 50 50 51 51 52 52 52 51 49 45 47 48 48 48 46 47 46 46 46 45 46 46 45 45 47 48 50 50 51 52 53 54 55 56 58 58 58
48 49 49 49 50 50 51 50 50 50 47 48 47 47 47 46 44 44 44 43 43 45 43 44 43 46 46 46 47 47 49 50 51 52 54 56 58 58
46 47 47 46 47 48 48 47 48 49 48 46 46 44 44 44 43 42 41 39 39 40 42 40 43 44 43 43 42 44 45 46 47 49 50 52 54 56
44 44 45 45 46 46 47 47 47 46 47 47 46 45 43 42 41 40 39 37 32 38 39 40 39 42 41 38 36 37 40 42 44 44 46 48 49 52
42 42 43 44 45 45 45 45 45 45 45 44 44 43 41 40 40 38 37 36 32 27 31 33 34 38 38 34 32 33 35 35 39 42 43 44 45 46
41 41 42 43 43 44 43 44 43 43 43 43 42 40 39 38 38 37 37 35 31 31 32 30 29 29 35 29 30 32 34 35 34 36 39 41 41 43
40 40 40 41 42 43 42 41 41 41 41 40 40 39 39 38 36 35 34 33 33 32 32 31 26 26 24 27 30 31 32 34 34 32 33 36 37 38
42 42 41 40 40 41 40 40 39 38 38 39 38 38 38 37 35 34 32 33 34 27 29 27 24 22 23 22 31 30 31 31 34 32 31 32 33 34
40 41 41 40 38 38 34 33 33 32 31 32 36 37 35 35 35 35 34 34 30 28 28 25 21 20 23 24 30 31 30 30 30 34 33 33 34 34
39 40 39 37 37 36 32 30 27 28 32 32 32 32 33 33 33 32 32 31 27 24 26 22 23 21 22 23 30 31 31 30 31 32 34 35 37 35
37 37 38 37 37 37 31 30 26 24 28 31 30 32 32 32 29 29 32 35 29 25 22 24 21 21 24 24 26 29 30 32 34 32 32 32 32 31
35 35 35 38 37 38 34 26 24 25 27 25 21 21 26 30 27 23 27 33 32 29 24 28 30 26 28 27 24 25 26 26 26 27 27 27 29 30
35 35 35 37 36 34 34 29 27 26 25 22 19 17 18 21 25 26 26 28 28 32 29 32 32 31 30 27 24 23 25 26 27 27 27 27 28 27
36 35 35 37 38 33 34 32 29 26 23 22 20 22 24 25 30 30 30 29 29 30 31 32 32 30 30 29 27 25 24 25 27 29 29 28 28 27
34 34 35 35 35 33 33 34 28 26 23 22 21 21 22 26 25 27 27 26 27 27 29 31 31 30 29 27 28 27 27 28 28 27 28 28 26 25
30 28 28 27 26 29 31 31 30 28 26 24 22 19 16 21 22 26 26 27 27 25 25 28 28 28 29 29 26 25 23 24 27 29 27 26 26 26
29 23 23 24 24 24 27 28 29 30 29 29 29 27 24 24 24 26 28 27 26 24 24 26 27 27 26 27 28 25 24 25 27 28 27 26 26 28
31 28 25 24 24 26 27 29 29 28 32 31 32 31 30 29 27 26 26 26 26 25 25 27 28 26 24 21 24 28 27 28 27 26 27 27 28 29
35 31 30 28 27 27 29 30 30 29 28 28 30 32 31 30 27 27 26 26 25 25 25 27 26 26 25 24 23 25 28 28 28 27 27 27 28 28
35 33 31 31 33 30 30 31 32 30 30 30 30 30 30 30 28 27 27 25 24 24 24 24 27 26 28 25 21 21 25 26 27 29 28 25 25 24
35 34 33 33 34 34 32 32 31 30 31 30 30 30 30 29 27 26 24 24 24 24 24 27 26 26 24 22 22 24 24 24 25 26 27 26 25 23
35 35 34 34 35 35 33 32 31 32 31 32 31 30 30 28 27 26 26 23 24 24 24 24 24 25 23 23 24 24 24 24 23 24 24 26 27 27

GFSNE_sfc_dewp_087.txt.gz
Dewpoint
58 56 54 54 54 54 54 53 49 46 46 47 48 50 50 50 49 49 49 50 49 49 49 48 47 48 50 51 51 52 53 53 54 54 55 56 58 56
53 52 51 52 52 54 54 53 52 49 47 47 49 49 49 47 47 48 47 47 46 47 46 46 45 46 47 48 49 49 50 51 52 53 54 56 57 58
51 50 50 51 51 52 52 52 51 51 48 49 49 48 48 48 45 45 45 44 44 45 44 44 44 46 45 45 46 47 47 48 50 51 52 54 55 58
48 49 49 48 49 49 50 49 49 48 48 47 48 46 46 45 44 43 41 39 39 42 42 42 43 44 43 42 42 42 44 45 46 47 49 51 52 55
47 47 47 47 47 48 48 48 48 47 49 48 46 46 45 43 42 41 40 38 34 40 40 41 40 42 41 38 36 36 38 41 43 44 46 47 49 52
45 45 45 45 46 46 47 47 47 47 47 45 45 44 43 42 42 39 38 38 34 29 34 35 36 39 38 34 33 34 36 36 38 41 43 44 45 47
43 43 44 44 44 45 46 45 45 45 44 44 43 42 41 39 38 39 38 36 34 33 32 33 33 35 37 31 30 32 34 35 35 36 40 41 42 43
41 42 42 42 42 42 42 42 43 43 43 42 41 40 40 39 38 36 35 33 34 33 32 33 28 30 28 29 30 31 31 34 35 33 35 37 39 40
42 42 41 41 42 42 42 41 40 40 39 41 39 39 38 38 37 35 34 34 34 29 31 31 27 26 26 24 31 31 31 31 34 33 31 33 35 36
42 42 42 40 40 40 39 38 36 35 34 35 38 39 38 37 37 36 35 34 32 29 29 28 24 23 25 27 29 31 30 30 32 34 34 34 34 34
39 39 40 40 40 40 36 35 33 32 32 31 33 34 34 36 36 35 35 33 30 26 26 24 23 24 24 25 30 32 31 30 31 34 35 36 37 37
39 39 40 39 39 39 34 32 29 28 30 32 33 33 34 33 31 31 34 32 31 27 26 27 23 23 24 25 29 31 32 33 34 33 33 33 33 32
37 37 37 39 39 40 36 32 32 28 29 29 27 28 30 31 28 26 29 33 30 29 25 29 28 27 28 27 25 27 27 28 28 30 30 29 29 31
36 36 36 39 39 39 39 33 28 28 28 25 22 20 23 28 28 28 27 29 30 31 28 30 28 28 28 26 26 24 26 27 28 28 30 28 29 28
37 37 38 38 39 37 37 35 30 27 26 25 23 26 28 30 29 28 28 29 29 30 30 27 28 25 26 25 25 25 26 26 28 28 28 28 28 29
39 36 36 37 38 36 34 34 30 27 25 25 24 25 27 28 27 28 27 27 27 27 29 28 26 24 24 25 25 24 26 24 26 27 27 28 27 26
36 34 34 34 35 34 33 33 31 28 27 25 25 22 22 25 26 28 28 27 25 26 26 27 28 27 26 23 22 25 24 24 26 26 25 24 27 28
32 30 31 32 31 30 31 32 31 31 29 29 28 25 22 24 25 27 28 26 25 25 25 26 25 24 25 26 28 24 24 24 25 26 25 21 23 28
32 30 28 25 25 26 28 31 31 31 31 30 29 29 27 26 25 26 26 26 25 25 25 26 24 22 19 19 26 29 22 24 24 24 24 24 22 25
34 33 30 27 27 27 27 29 30 30 30 31 30 30 29 27 26 26 26 24 24 24 23 23 22 22 19 19 20 24 29 22 23 23 23 27 27 30
36 34 33 33 29 27 28 30 31 30 29 29 29 30 29 28 27 26 26 26 26 24 22 23 25 27 22 20 17 20 24 28 27 23 27 26 23 23
36 36 34 33 32 32 33 31 30 30 29 29 29 29 28 28 27 26 26 25 24 24 23 24 22 23 18 17 15 17 23 26 27 27 27 27 23 16
36 36 35 34 34 34 34 32 30 29 29 30 29 29 29 28 27 26 26 25 25 24 24 23 24 22 20 19 19 18 21 25 24 24 25 27 28 27

GFSNE_sfc_dewp_093.txt.gz
Dewpoint
59 58 58 57 57 57 55 52 51 45 46 47 48 49 48 48 49 48 48 51 51 50 49 48 47 47 48 49 49 49 50 50 51 51 52 51 52 53
58 57 57 57 57 55 54 52 51 47 44 46 47 47 48 48 49 48 47 48 49 48 47 46 46 46 47 47 47 47 47 48 49 49 50 50 51 52
57 57 56 55 54 53 53 52 51 50 46 46 46 46 45 45 45 46 45 44 46 46 45 45 44 45 45 44 44 43 44 45 46 47 48 49 50 53
55 55 54 53 52 52 51 50 50 50 48 45 44 43 44 46 45 44 43 42 42 42 45 44 43 45 44 42 40 40 39 40 43 45 46 48 49 51
55 55 54 52 51 50 50 50 49 48 46 44 43 44 43 43 42 42 41 40 37 41 43 42 42 43 44 39 37 37 37 38 39 41 44 45 47 49
52 52 52 51 49 48 48 48 46 45 44 44 44 43 42 42 42 40 39 39 38 34 38 37 41 40 43 37 34 34 35 35 37 38 41 43 44 46
50 50 49 49 47 48 47 47 46 44 42 40 41 42 41 39 39 39 39 37 38 36 32 34 36 35 39 36 32 33 33 34 36 35 37 40 42 43
46 46 47 46 47 48 48 48 47 44 42 40 41 41 40 39 37 36 36 35 35 36 33 33 32 32 34 31 32 31 32 32 35 34 33 37 39 41
44 44 43 44 44 45 46 46 46 46 44 41 40 41 39 38 38 36 35 35 35 33 33 32 28 28 26 29 31 31 31 31 34 34 33 35 36 37
42 42 41 41 40 41 40 38 38 39 40 41 40 39 38 38 37 37 36 34 30 29 31 31 25 24 25 25 30 31 31 31 34 35 36 36 39 39
38 40 40 40 42 43 38 35 35 34 37 37 38 40 41 41 39 36 33 33 31 29 27 26 22 22 23 23 26 30 31 31 33 34 34 35 36 35
40 39 41 39 42 43 37 35 33 32 31 31 32 35 38 38 40 34 33 31 31 26 25 23 22 22 19 24 28 29 30 33 35 34 34 33 33 31
39 39 39 43 42 43 40 35 34 32 33 30 30 30 30 30 29 30 31 28 28 21 26 24 17 21 20 21 25 28 28 29 29 30 31 30 30 31
38 39 38 41 42 42 41 38 37 34 31 29 29 29 28 27 25 27 29 28 27 26 27 23 18 19 15 16 21 24 25 26 26 26 26 29 30 30
39 39 39 41 42 41 42 39 38 31 30 28 26 26 26 27 25 25 26 27 26 27 28 28 19 16 16 14 19 20 23 25 24 23 24 25 25 25
40 39 40 40 41 40 39 39 34 30 28 27 26 23 25 25 24 24 23 22 20 25 28 27 23 18 15 17 17 18 19 18 21 22 23 24 26 27
39 36 37 37 37 37 36 38 32 29 28 27 24 25 24 25 25 24 24 20 17 22 24 24 27 25 22 21 18 20 22 21 20 20 22 20 23 26
39 36 35 35 35 35 35 35 33 31 28 27 25 25 25 25 25 24 22 19 18 20 21 22 22 21 24 25 27 21 21 21 20 23 23 15 19 23
37 35 35 33 33 34 34 34 33 32 30 28 27 27 26 25 26 24 24 22 19 19 20 21 19 18 19 18 25 28 19 18 20 21 21 20 16 22
37 36 35 34 34 33 33 33 34 32 31 31 28 26 25 24 24 24 24 24 18 17 18 18 19 17 21 20 18 22 28 19 18 18 18 22 24 28
35 36 35 34 34 34 33 34 33 33 32 31 29 26 25 24 23 24 24 26 24 21 23 24 24 27 22 20 19 20 23 29 25 18 15 16 20 23
34 35 35 35 33 33 32 32 32 33 32 32 31 29 26 25 24 24 24 24 24 25 24 20 25 23 20 23 19 17 22 24 28 29 28 24 17 12
34 34 35 34 33 32 32 32 32 32 33 32 32 31 29 27 26 25 25 24 25 25 24 23 24 24 25 24 22 18 18 20 22 22 24 29 29 29

GFSNE_sfc_dewp_096.txt.gz
Dewpoint
60 59 58 58 57 57 56 55 53 48 48 47 48 49 49 49 50 48 48 52 52 51 50 49 48 48 48 49 49 49 49 49 49 49 50 51 52 51
59 58 58 58 57 57 55 54 53 50 47 48 47 48 48 48 49 47 47 49 50 49 48 47 46 46 47 47 47 47 46 47 47 48 49 50 50 51
58 57 57 57 57 56 55 53 51 49 46 46 47 46 46 46 46 46 46 45 45 47 46 46 45 45 45 45 43 43 43 44 45 46 47 48 48 50
58 57 56 55 56 55 54 53 52 50 49 45 45 45 45 45 44 45 44 44 42 44 45 46 45 45 45 43 41 39 39 40 40 42 45 46 47 48
58 56 56 55 55 54 53 52 51 49 47 46 44 44 44 44 43 43 42 40 39 41 44 44 44 45 45 42 38 37 36 36 38 39 41 44 45 47
56 56 56 55 55 53 52 51 49 48 46 45 44 43 42 42 42 40 40 40 39 36 40 40 40 43 43 41 36 34 34 34 36 37 38 41 43 44
51 52 53 52 50 52 51 49 48 47 43 42 41 41 41 40 40 40 40 39 39 38 34 35 37 37 38 39 34 34 33 33 35 35 35 39 41 42
49 49 50 48 49 50 50 48 48 47 44 42 40 41 41 39 38 38 37 35 35 35 33 32 33 33 35 36 34 33 32 32 33 35 33 36 38 39
46 46 46 46 47 47 49 49 48 48 47 45 43 41 39 38 38 36 33 33 35 34 33 33 31 31 29 29 33 32 32 31 33 34 33 34 37 40
43 44 44 43 43 44 44 43 44 45 45 44 43 41 40 40 39 37 36 34 31 32 33 31 26 27 26 25 30 31 32 31 33 35 36 38 38 38
39 41 43 42 43 44 41 39 39 38 40 42 42 42 42 42 39 36 33 34 31 29 29 28 23 22 23 23 25 31 33 31 33 33 33 34 35 35
40 38 42 42 43 44 40 38 37 36 34 35 36 38 41 41 41 36 34 34 32 30 28 26 22 23 21 23 27 29 30 34 34 35 34 33 33 30
40 40 40 42 43 44 41 38 38 34 34 31 31 32 32 34 35 33 33 32 28 26 27 25 21 23 20 22 25 28 28 29 29 30 32 30 31 31
40 40 40 42 43 44 43 40 39 36 32 30 30 30 31 30 28 29 31 29 28 30 28 25 21 22 18 16 21 24 25 26 26 26 26 29 30 30
42 41 41 41 42 43 43 41 40 33 31 28 27 28 29 28 27 26 27 28 28 28 28 24 22 17 18 15 19 20 23 24 24 22 23 24 25 25
40 41 41 41 41 42 42 41 38 32 31 30 28 27 27 25 25 25 24 25 24 26 28 28 20 21 15 15 15 16 18 18 21 21 23 24 26 26
39 36 37 37 37 37 37 38 36 33 31 29 27 24 26 26 25 23 24 22 19 23 25 26 26 24 20 19 16 20 21 21 20 20 22 20 23 25
36 34 35 36 36 36 36 36 35 34 32 29 29 27 25 26 25 23 22 22 18 21 21 24 23 19 20 22 25 21 20 22 21 23 22 15 18 22
35 35 34 35 35 35 35 34 33 34 33 31 30 29 27 25 26 24 23 22 21 21 19 21 19 14 12 12 23 28 21 20 21 21 21 20 16 21
33 34 34 35 34 34 33 34 33 32 32 31 31 29 29 27 25 25 24 23 22 21 19 16 18 15 17 15 20 23 27 21 20 20 19 22 23 28
32 32 35 35 34 34 33 32 33 32 32 31 30 29 28 28 26 26 25 26 24 22 22 23 24 24 16 19 18 21 25 27 24 21 18 17 18 22
31 32 33 35 35 34 33 33 32 32 32 32 31 29 28 28 26 26 25 25 25 24 24 21 21 21 18 21 18 18 22 25 29 28 27 24 18 13
29 32 33 34 35 33 33 33 32 32 32 32 31 29 28 27 26 25 25 25 25 25 23 22 23 25 24 24 22 19 20 22 24 25 26 29 29 28

GFSNE_sfc_dewp_099.txt.gz
Dewpoint
59 60 59 59 59 58 58 57 54 51 50 49 49 50 51 51 51 50 50 54 54 54 52 51 49 49 49 49 49 48 48 48 48 48 49 49 49 50
59 59 59 59 58 58 57 56 55 54 51 49 48 49 49 49 50 47 48 50 52 51 50 48 47 47 48 47 47 46 45 46 46 47 48 48 48 48
58 58 58 58 58 57 57 56 54 53 49 46 47 47 47 48 47 47 47 46 47 49 48 48 47 46 46 46 44 43 42 42 43 44 45 46 47 47
58 57 57 57 57 56 55 54 53 50 49 45 45 45 46 46 46 45 45 45 44 46 46 46 46 46 46 44 42 40 39 39 40 41 42 45 46 47
58 57 57 57 56 56 55 55 54 51 50 47 44 45 44 46 44 44 43 41 41 42 44 46 46 45 46 45 40 38 36 36 36 38 39 42 44 45
56 57 57 57 56 55 55 55 53 52 50 48 44 43 43 43 44 42 41 41 39 37 41 42 43 43 44 45 40 35 34 34 35 37 35 39 42 43
52 53 54 54 52 55 54 54 52 51 48 46 43 42 41 41 42 41 41 39 39 39 37 38 38 39 39 44 37 35 34 33 33 35 34 36 39 41
48 50 51 49 50 51 51 51 51 50 48 46 42 43 41 41 41 40 38 36 36 39 37 35 34 34 36 38 37 35 33 32 32 34 34 35 37 39
45 46 47 47 48 49 50 50 49 50 50 47 44 43 42 40 40 36 35 35 36 34 35 33 33 32 33 34 38 35 33 31 32 34 34 34 39 39
41 42 44 44 44 46 46 45 46 47 47 46 46 44 44 42 42 39 38 34 32 33 34 31 28 30 27 27 33 33 33 31 33 35 36 36 37 38
41 41 42 43 44 46 43 42 42 41 45 46 46 45 45 45 41 38 35 36 32 31 32 32 25 25 24 24 25 33 32 32 33 34 33 33 35 34
42 41 42 42 43 45 43 41 40 39 38 39 40 42 43 43 42 40 37 37 32 31 30 29 23 23 22 23 25 28 30 33 33 35 34 33 33 29
41 41 41 42 43 44 45 41 40 37 39 36 37 35 37 38 38 35 36 37 32 32 29 26 23 23 22 23 26 29 29 30 31 33 33 30 32 30
38 40 41 42 43 43 44 42 42 39 35 33 33 34 34 35 35 32 32 30 31 33 30 26 23 23 19 17 22 25 26 26 28 27 26 29 31 31
36 39 40 42 42 43 43 43 41 35 33 32 32 32 32 31 30 29 28 28 28 29 29 25 23 18 20 17 19 20 24 25 24 23 23 24 25 24
32 34 37 40 42 41 42 43 39 35 34 33 32 30 29 26 26 26 27 26 25 26 29 25 18 21 15 15 18 18 18 18 21 21 23 24 26 26
31 32 34 36 36 37 37 39 38 35 34 33 29 27 28 27 27 25 25 23 22 26 25 26 25 24 20 20 18 20 21 20 20 20 22 21 24 25
31 30 32 35 35 36 36 36 36 36 34 32 30 29 28 27 26 25 23 22 22 22 24 25 25 20 21 23 24 22 19 22 20 22 23 18 20 23
30 31 32 34 34 35 36 35 35 35 34 32 31 30 30 29 27 25 24 24 21 21 18 21 17 17 14 15 22 26 20 19 21 21 22 23 19 22
30 30 31 32 34 34 34 34 34 32 32 32 31 30 29 29 27 26 24 23 22 18 17 15 20 16 16 15 19 21 26 19 20 21 22 24 25 27
28 30 31 32 32 34 33 32 33 32 32 32 31 30 29 29 28 27 26 25 23 20 20 21 23 23 12 19 21 22 27 26 24 21 22 22 23 23
28 29 29 30 32 33 34 33 32 33 32 32 32 31 30 30 28 27 27 26 26 22 24 25 23 19 18 21 18 17 22 26 28 28 27 25 24 20
29 26 28 30 32 33 34 33 32 32 32 32 32 31 30 29 29 28 27 27 27 25 24 22 23 23 24 23 19 19 21 21 25 27 27 29 27 26

GFSNE_sfc_dewp_102.txt.gz
Dewpoint
59 59 59 59 59 59 58 58 56 52 52 49 49 51 52 53 53 53 53 55 57 58 56 54 52 52 52 51 51 50 49 47 47 46 47 48 48 49
59 58 59 59 59 59 58 58 57 56 53 51 50 50 51 51 52 51 51 53 54 54 52 51 50 50 50 50 49 48 46 45 45 46 46 47 48 48
58 58 58 58 58 58 58 58 57 56 54 47 48 48 49 49 49 48 49 49 51 52 50 49 49 48 48 48 47 45 43 42 43 43 44 44 46 47
58 58 57 58 58 58 57 56 56 55 52 46 45 46 47 49 48 47 47 47 47 50 49 49 48 48 47 46 44 43 41 40 40 40 41 42 45 46
56 57 57 57 56 57 56 55 54 52 52 47 44 45 45 47 46 46 45 44 44 46 48 48 47 47 47 46 43 41 39 37 37 37 37 39 42 44
49 52 54 56 57 56 56 56 55 53 52 48 45 45 43 45 46 43 42 42 40 40 44 45 46 46 47 47 43 40 37 35 35 36 36 35 39 42
45 47 50 51 49 52 55 55 55 54 52 50 44 42 43 43 43 43 43 41 41 39 38 40 41 42 43 44 42 39 37 35 34 34 34 34 37 40
43 44 46 47 48 50 51 50 53 53 51 49 47 45 44 44 44 42 39 38 37 40 38 37 39 38 39 40 40 39 36 34 33 34 34 34 36 40
42 42 43 44 45 46 48 49 50 51 51 50 48 47 45 44 43 41 38 37 37 36 37 36 34 35 35 37 41 39 36 34 32 34 34 35 38 38
40 40 41 42 43 44 45 45 46 49 50 49 50 49 47 45 43 43 42 38 34 35 35 34 31 32 30 30 40 39 36 34 33 35 36 36 35 37
36 40 40 41 43 44 44 42 43 44 45 47 47 47 46 46 45 41 38 37 33 33 34 33 27 27 26 25 27 36 35 34 34 36 35 34 35 34
37 35 40 41 43 44 43 43 41 42 41 41 43 45 46 45 44 43 39 38 33 32 32 31 25 25 25 24 25 28 31 34 34 35 34 35 34 29
32 36 37 40 41 42 44 43 42 41 41 38 38 39 40 42 42 39 40 40 34 33 32 29 27 25 25 24 26 28 30 31 32 34 34 32 34 30
28 30 35 37 39 40 42 44 44 42 37 36 36 36 37 37 36 35 34 33 32 34 33 28 24 24 22 21 23 27 27 28 29 29 27 30 32 32
27 29 32 34 35 37 40 43 44 38 36 35 35 35 35 35 33 31 30 30 30 31 31 28 25 21 23 23 22 22 25 26 24 24 23 25 25 25
29 29 30 32 34 35 39 41 41 37 36 36 35 33 32 32 32 31 29 29 29 27 28 25 23 22 16 17 18 20 18 20 22 21 24 24 26 26
30 30 30 27 29 34 36 37 39 36 36 35 32 31 31 31 31 30 30 29 28 26 26 26 24 23 21 19 16 19 20 19 20 21 23 21 24 26
29 30 29 30 32 32 34 35 36 36 35 34 32 32 31 31 29 28 28 30 27 27 26 26 25 19 21 23 24 21 19 20 19 23 23 17 19 22
25 26 28 28 30 32 33 34 34 35 34 34 32 32 31 30 30 28 28 28 26 26 26 26 23 17 15 17 21 26 18 19 22 22 22 21 18 21
25 26 27 28 28 30 31 33 33 33 33 32 32 31 30 30 28 27 27 27 26 23 21 21 23 18 20 16 17 19 26 20 21 22 21 23 24 28
25 26 28 29 28 28 31 33 33 32 32 32 32 31 31 30 28 28 27 29 27 23 21 22 24 24 9 17 19 24 26 25 24 21 22 21 21 22
26 26 28 28 26 29 32 32 32 32 32 32 32 31 31 31 29 28 28 27 27 25 23 24 22 17 14 18 17 20 24 26 27 27 26 25 21 17
25 26 25 24 24 29 31 32 32 32 32 32 32 31 31 30 30 29 28 29 26 25 24 22 21 20 22 22 18 20 23 25 27 27 27 28 27 28

GFSNE_sfc_dewp_105.txt.gz
Dewpoint
60 59 59 59 59 59 58 58 56 52 53 53 53 53 54 55 55 55 55 56 58 59 59 58 56 56 56 55 54 53 52 50 49 48 48 48 48 48
60 59 59 59 59 60 59 59 58 56 53 55 53 52 53 54 54 55 54 54 56 58 56 54 54 54 54 53 52 51 50 49 48 48 48 47 46 47
58 58 58 58 58 59 59 58 57 57 55 55 50 50 51 52 52 53 53 54 55 55 54 52 52 52 52 52 51 49 48 47 46 46 46 45 45 46
51 55 57 57 58 58 58 57 57 57 56 54 48 47 49 51 51 50 49 50 52 53 52 51 51 50 50 49 48 47 45 44 43 43 43 43 44 45
47 48 50 52 56 57 57 57 56 56 56 52 45 46 46 49 47 47 47 47 47 50 52 51 50 49 49 48 47 45 43 42 40 39 39 39 40 42
44 45 47 49 50 51 53 56 56 55 53 51 47 45 45 46 47 45 43 44 44 46 48 48 49 48 48 48 46 44 42 40 39 38 38 36 36 40
42 43 44 45 45 47 49 50 53 54 52 50 46 44 43 44 45 45 45 43 42 41 44 46 47 47 47 48 46 43 40 38 38 37 37 35 35 38
39 41 42 43 44 46 47 47 49 49 51 51 48 46 46 46 46 45 43 40 39 42 41 42 44 44 44 44 45 42 41 39 37 36 36 34 35 39
36 38 39 40 43 43 44 46 47 48 49 51 50 48 48 47 46 43 43 43 43 40 42 40 39 40 40 40 44 42 41 38 37 36 35 33 38 38
37 36 37 37 40 41 42 43 44 45 47 49 50 51 50 48 47 46 45 43 37 39 41 37 36 37 36 37 43 42 40 38 36 35 36 38 36 36
32 32 34 35 37 38 39 42 42 43 45 46 47 49 49 48 48 45 41 39 34 34 37 35 32 31 31 32 35 42 40 38 36 36 38 36 36 36
29 30 33 35 38 38 39 39 40 41 43 43 45 46 47 47 46 45 42 41 34 33 35 34 31 31 31 27 30 35 37 37 35 37 36 36 35 31
26 26 27 31 33 35 36 37 39 41 43 42 42 42 43 44 45 45 42 43 39 36 36 34 32 30 31 26 26 28 32 34 34 36 35 35 35 31
25 26 26 30 31 32 32 35 37 41 41 40 38 38 39 40 42 40 41 41 40 36 38 34 32 32 29 26 26 27 30 33 34 34 34 32 34 33
27 27 29 29 30 30 31 33 35 38 39 37 36 37 38 39 35 33 33 32 33 36 37 34 34 32 32 30 27 28 28 30 32 34 32 32 32 31
30 31 32 30 28 28 29 33 36 38 37 37 37 36 33 33 33 32 32 33 31 28 28 32 33 32 30 29 29 29 30 31 31 32 32 31 29 27
32 30 30 29 27 28 31 32 35 36 36 36 35 32 33 33 32 32 32 32 31 28 27 25 26 28 30 28 27 28 26 26 31 32 30 29 28 28
30 29 26 26 27 27 28 30 32 34 35 35 35 33 33 33 33 32 33 33 30 29 27 25 26 26 26 26 27 26 26 26 28 30 30 30 28 29
30 26 24 24 26 28 28 29 30 33 34 34 33 33 33 32 32 30 31 32 30 30 28 27 27 29 26 23 26 26 28 27 28 28 28 27 29 29
26 25 26 25 26 28 29 28 30 32 32 33 32 32 32 32 31 30 31 31 29 28 26 27 28 29 30 27 26 27 27 28 29 28 27 26 28 27
25 25 26 27 28 29 28 29 30 32 33 32 32 32 32 32 31 31 31 31 29 28 25 24 28 26 26 28 25 25 25 26 27 29 28 27 25 25
24 25 25 27 28 28 27 29 28 31 32 32 32 32 32 32 31 30 31 31 30 30 28 28 27 25 26 26 24 25 24 26 27 28 27 28 29 25
24 25 26 26 27 26 27 28 28 29 31 32 32 32 32 32 32 31 30 31 29 27 26 25 25 25 24 24 25 25 25 25 26 26 27 29 29 27

GFSNE_sfc_dewp_108.txt.gz
Dewpoint
60 60 59 59 58 58 58 57 55 53 54 54 56 56 57 58 57 56 56 55 57 57 59 59 59 59 60 60 59 58 57 55 53 52 51 50 50 50
56 58 59 59 59 59 59 58 58 55 53 54 56 56 55 55 55 56 56 54 55 56 57 57 57 57 57 57 57 56 55 53 52 51 50 50 49 49
50 51 51 56 59 59 59 58 58 58 55 55 57 56 54 54 54 55 56 56 56 56 57 56 55 55 55 55 55 54 52 51 51 50 49 49 48 48
46 47 48 50 51 55 58 57 57 58 56 54 55 53 52 53 54 53 54 54 55 55 56 55 54 54 54 53 53 52 51 50 49 48 47 46 46 46
41 43 44 47 49 50 50 50 55 56 56 55 54 48 49 50 49 50 50 49 52 53 55 54 53 53 52 52 51 50 49 47 46 44 44 43 43 43
38 39 41 42 43 44 47 48 50 50 55 55 51 46 46 46 49 46 44 46 46 49 52 51 52 51 51 50 49 48 46 45 43 41 40 39 38 38
31 33 38 41 43 44 44 45 46 47 48 51 47 45 45 45 46 47 46 45 43 44 47 48 49 49 49 49 47 46 45 43 42 41 40 39 37 37
28 30 32 36 38 40 42 44 45 45 45 47 49 48 47 48 47 46 45 41 39 43 44 45 47 46 46 48 47 46 44 42 41 40 39 38 36 36
30 31 30 29 37 34 38 40 41 43 45 46 45 47 49 48 48 45 45 44 44 42 45 42 44 44 46 45 47 46 44 43 41 40 38 37 35 39
30 29 28 28 30 34 33 34 36 38 40 42 46 47 49 51 49 47 47 45 40 41 45 41 41 42 43 43 47 46 44 43 41 39 37 36 38 38
26 26 27 27 31 34 32 35 33 34 37 41 43 45 46 47 49 48 45 41 35 36 43 37 35 35 37 39 43 45 44 43 41 39 37 37 38 38
24 24 28 27 31 32 30 29 30 31 35 38 40 41 43 46 47 49 45 42 41 35 38 39 33 33 33 33 37 42 43 43 40 38 37 38 37 35
23 23 24 29 30 31 31 28 29 30 33 35 38 40 41 42 45 47 48 45 42 40 38 38 34 33 34 30 32 36 40 39 37 36 38 38 37 33
24 24 25 29 29 30 29 30 30 30 31 34 35 35 38 40 42 44 45 44 45 43 39 41 34 36 32 30 29 31 34 36 36 35 37 36 36 34
27 29 31 31 31 30 28 28 29 29 32 33 33 35 37 40 38 34 33 34 33 35 38 40 37 37 37 34 30 31 32 33 35 37 36 35 35 34
28 30 31 33 30 29 27 28 29 32 31 32 34 36 37 34 34 34 34 34 34 31 31 34 34 37 35 33 33 32 34 33 34 36 35 34 33 32
31 30 30 29 27 26 26 27 29 31 31 32 33 33 35 34 34 34 34 34 34 31 30 29 30 33 34 32 33 32 32 32 34 34 34 33 31 30
29 29 30 27 25 25 25 27 28 28 29 30 32 33 33 33 33 32 33 33 34 32 29 27 29 29 30 29 33 31 32 32 32 33 33 32 31 31
29 28 25 24 24 26 27 27 28 28 30 31 32 32 33 33 33 32 32 32 33 32 30 29 31 32 30 29 27 32 31 31 30 29 32 32 33 32
26 26 26 25 25 26 28 28 28 29 29 30 31 32 32 32 32 32 32 32 32 31 28 29 31 32 32 30 27 27 30 31 31 30 31 30 30 31
25 26 25 26 26 27 27 29 29 28 28 29 31 32 32 32 32 33 33 34 33 30 28 28 31 34 31 31 27 25 26 29 32 32 30 29 27 24
22 24 24 25 26 27 28 28 27 27 28 29 30 32 32 32 32 33 33 33 31 31 30 31 29 30 32 32 27 26 25 26 30 31 31 31 31 27
22 24 25 25 26 26 27 27 26 27 27 28 30 31 32 32 33 33 32 32 32 31 29 27 28 31 30 29 28 27 26 26 26 27 27 29 28 28

GFSNE_sfc_dewp_111.txt.gz
Dewpoint
53 53 56 59 60 60 59 58 55 52 52 53 54 57 58 60 59 59 59 56 58 59 60 60 59 59 60 61 62 62 62 60 58 56 55 53 52 51
49 49 50 51 53 55 58 58 58 56 53 56 56 57 58 57 57 58 58 55 56 57 58 57 57 58 58 59 60 60 59 58 56 55 54 53 52 51
45 46 47 48 49 51 52 54 57 57 54 55 55 57 55 55 55 56 56 56 57 56 57 57 56 56 57 58 58 58 57 56 55 54 53 52 51 50
38 41 43 45 47 48 48 48 49 50 53 54 55 53 54 54 55 55 55 55 56 55 56 56 55 55 56 57 56 56 55 54 53 52 51 50 49 48
34 37 39 41 42 42 44 46 48 49 49 49 53 53 53 51 51 52 53 53 53 53 55 55 56 56 56 55 55 54 53 52 51 50 49 48 47 46
31 32 33 37 37 40 41 43 44 44 47 47 48 48 47 47 49 47 46 46 49 50 53 55 55 54 54 54 53 51 50 50 49 47 46 45 43 41
28 26 30 35 38 40 38 40 41 41 42 43 45 46 45 45 45 47 47 46 45 46 49 50 51 51 52 52 50 49 49 48 47 45 44 42 41 39
27 29 30 33 33 35 38 39 39 38 39 39 41 43 45 47 47 46 45 41 40 44 46 47 50 49 50 50 49 48 48 47 46 44 42 42 40 38
30 30 29 25 33 29 33 35 36 37 38 37 39 41 44 46 48 45 45 43 44 43 47 45 45 46 48 48 49 48 47 46 45 43 42 41 39 37
30 29 28 27 29 31 31 31 31 31 33 34 35 37 41 43 43 44 47 46 42 41 47 44 43 45 46 47 49 47 46 45 44 43 42 40 38 37
25 25 25 25 28 31 29 30 28 29 31 34 36 37 38 41 42 43 42 43 41 37 43 41 37 39 40 41 47 47 46 45 45 44 42 40 38 39
23 23 28 26 28 30 28 25 25 25 28 29 30 32 35 37 41 41 43 42 42 36 38 40 34 34 34 35 39 46 45 46 45 43 41 39 39 37
24 24 23 27 29 30 30 28 28 28 28 27 28 30 32 34 36 40 42 42 42 42 39 42 35 34 34 31 35 41 43 43 42 41 41 39 39 37
25 25 26 30 31 31 31 31 30 29 27 27 29 30 31 33 34 36 38 41 43 44 40 43 34 39 35 30 31 35 40 42 40 38 37 39 39 38
27 29 31 30 30 30 31 30 28 27 28 28 28 29 31 33 34 36 37 36 36 36 38 41 40 38 39 35 30 33 36 37 38 37 37 36 35 34
30 30 30 31 30 29 29 27 27 28 27 27 28 30 30 31 32 35 36 37 35 37 33 37 39 37 37 36 34 33 36 33 36 36 36 35 34 33
30 29 29 28 28 29 27 27 27 27 27 27 26 27 28 30 31 34 35 35 33 35 31 31 33 36 35 34 34 34 34 33 35 35 34 33 33 32
26 26 27 27 27 26 25 25 26 26 27 27 26 28 29 30 30 32 33 33 32 33 33 29 32 31 31 32 34 34 34 33 34 34 34 32 31 31
27 26 26 27 26 26 26 25 25 27 28 28 27 27 29 31 31 31 32 32 32 33 33 30 32 33 30 30 29 35 33 33 33 33 33 31 30 30
25 24 25 26 26 25 25 25 25 26 27 26 26 26 29 30 30 31 32 32 32 32 30 30 32 32 33 29 26 28 34 32 32 32 31 30 31 32
21 22 23 23 24 24 25 26 25 26 25 25 26 26 27 30 30 31 32 34 33 31 28 29 32 35 32 31 27 27 29 33 33 32 31 28 26 25
20 22 22 23 24 24 25 25 25 25 25 25 25 26 27 30 29 31 32 31 32 31 31 31 31 32 32 30 26 25 27 30 33 33 31 31 26 23
23 22 22 23 24 24 25 25 25 25 25 26 26 26 28 28 29 31 32 32 32 31 29 28 30 31 31 28 26 26 27 28 29 28 28 28 29 31

GFSNE_sfc_dewp_114.txt.gz
Dewpoint
50 49 50 51 51 52 53 54 56 52 53 54 53 54 53 58 59 60 59 57 59 60 61 61 60 60 60 61 61 62 62 62 62 61 59 57 55 54
47 46 47 48 49 51 51 50 50 50 52 56 56 56 57 58 58 60 59 56 57 59 59 58 58 58 58 59 59 60 60 60 61 60 58 57 55 53
41 42 42 45 46 48 46 47 48 48 47 49 52 57 56 57 57 58 57 58 57 56 58 58 57 57 57 57 58 58 59 60 60 60 58 56 55 53
36 38 38 40 43 42 43 45 45 47 46 45 47 50 54 56 56 56 56 56 57 56 56 57 56 56 56 56 56 57 58 58 58 57 57 55 54 52
32 34 35 37 38 37 41 40 43 43 45 45 45 48 51 51 52 53 53 54 54 54 56 56 56 56 56 55 55 56 56 56 55 54 54 53 53 51
30 32 31 33 34 35 38 39 39 39 40 41 42 44 47 48 48 48 48 48 50 50 52 54 55 55 55 55 55 54 54 54 53 53 52 51 50 49
28 29 31 34 37 34 32 37 38 37 37 37 38 39 41 44 46 47 47 48 46 47 49 51 52 54 54 55 54 52 52 52 52 51 50 49 47 46
29 30 31 33 32 31 33 35 34 33 35 35 35 36 38 41 43 44 45 42 41 45 46 48 50 50 52 53 52 51 51 51 50 49 48 47 44 43
30 31 30 26 32 31 32 32 32 32 32 32 33 33 34 34 38 38 39 41 43 45 45 45 45 46 49 50 51 50 50 49 49 48 47 45 44 42
30 30 29 28 28 28 29 29 30 30 30 30 31 32 32 34 36 37 39 39 42 42 45 42 42 44 45 47 50 49 49 48 47 46 45 44 43 41
26 25 26 26 28 29 28 29 27 26 27 29 30 31 32 33 34 34 35 35 36 39 41 41 38 40 39 43 47 49 48 47 47 46 45 44 42 40
26 25 29 26 28 29 28 27 27 27 27 28 27 28 29 30 33 34 35 35 35 36 38 39 36 35 35 37 39 47 47 47 46 46 45 44 42 38
26 26 25 29 29 30 31 29 30 30 29 28 27 28 28 31 32 34 34 34 34 34 39 39 35 34 35 33 35 41 46 45 45 44 45 43 42 39
26 26 27 31 31 31 30 31 31 30 26 26 27 27 28 29 30 32 33 33 35 36 38 40 35 39 35 32 33 35 42 44 43 42 42 42 41 41
26 28 31 33 33 31 31 30 30 26 26 26 26 26 26 27 28 29 31 32 32 35 37 38 39 39 40 39 35 33 38 40 42 41 40 39 39 39
28 28 32 31 30 29 29 29 28 27 25 25 26 27 26 24 27 29 29 31 31 32 34 36 37 38 38 39 38 33 38 36 39 39 38 38 38 37
27 27 27 26 26 27 28 28 27 26 25 26 26 26 26 25 26 28 29 30 30 30 33 33 34 36 38 37 36 36 37 35 38 38 37 35 35 35
25 25 26 26 25 25 26 25 25 26 26 26 26 26 25 25 25 27 30 29 29 29 32 34 32 32 31 32 37 35 36 36 36 36 36 34 33 34
24 26 26 26 26 26 26 25 24 25 25 23 24 25 24 25 25 25 27 28 30 31 31 33 32 32 31 31 31 35 35 35 35 34 35 34 32 32
22 22 22 22 23 24 24 23 24 24 22 23 22 22 25 24 24 25 27 28 30 31 32 33 31 32 32 32 28 31 34 34 34 33 33 32 33 34
20 20 21 21 22 22 23 23 23 24 24 24 24 24 24 24 24 26 28 29 31 31 30 30 31 35 33 31 28 28 30 35 35 34 32 31 29 29
18 21 23 24 22 22 23 24 24 24 23 22 23 25 25 24 25 26 26 27 29 31 31 32 32 31 31 31 29 26 28 30 33 35 35 31 29 25
19 19 19 20 21 22 22 21 21 20 21 20 22 25 24 25 26 26 27 28 30 30 30 28 29 31 31 29 27 27 28 29 29 29 29 33 33 31

GFSNE_sfc_dewp_117.txt.gz
Dewpoint
47 47 47 47 48 49 51 49 48 48 51 54 55 56 55 55 57 58 58 57 58 60 61 61 60 60 61 62 62 62 62 62 62 63 64 62 61 60
43 42 44 46 46 48 45 46 47 46 45 49 51 51 52 56 56 57 59 56 57 59 59 58 58 59 59 60 60 61 61 61 62 63 63 62 60 59
38 40 39 40 45 42 42 45 44 45 43 44 47 49 49 49 52 56 59 59 59 57 58 58 58 58 58 58 58 59 59 60 61 62 63 62 60 58
32 36 36 35 39 38 40 40 41 43 42 40 42 44 46 49 51 51 55 57 58 57 57 57 57 57 57 57 57 57 57 58 58 60 61 60 59 57
30 31 33 34 33 35 38 38 39 38 40 39 39 42 45 47 48 50 50 51 53 52 56 56 56 56 56 56 56 55 55 55 56 57 58 58 57 57
31 32 32 32 32 34 34 36 38 38 38 37 37 38 40 41 45 45 45 48 48 50 51 53 54 55 55 56 55 54 53 54 55 56 56 55 54 54
30 30 31 34 35 31 31 35 34 33 35 35 34 35 35 38 37 39 39 41 43 47 48 49 51 52 53 53 53 52 52 53 54 55 55 54 53 53
29 30 31 33 31 30 32 32 31 31 31 31 32 32 32 33 35 35 36 36 38 45 44 45 49 49 51 52 53 52 52 53 53 54 53 52 51 51
30 30 29 27 32 29 30 29 30 29 29 30 30 29 30 31 32 32 33 34 35 38 39 40 45 46 49 50 51 52 52 52 52 51 51 50 49 48
30 29 27 28 28 29 29 29 29 29 30 29 29 30 31 31 31 31 32 33 35 35 38 39 43 44 46 47 49 50 50 50 50 49 49 48 47 46
28 26 27 26 29 31 27 28 27 28 30 32 32 32 31 31 31 31 31 31 29 31 35 38 39 39 40 42 46 50 50 49 49 49 48 47 46 46
27 27 30 28 30 30 28 28 27 28 29 29 29 28 29 29 31 32 32 32 31 29 34 35 36 37 37 38 40 46 48 49 48 48 47 46 45 41
27 27 27 30 31 31 32 31 30 30 30 29 26 27 27 28 30 31 32 31 29 30 32 34 35 35 34 36 35 39 45 46 46 47 47 46 44 40
24 25 27 30 30 32 32 32 32 30 28 26 25 26 26 26 27 28 28 28 29 30 31 32 32 34 34 35 35 35 40 44 45 43 44 45 44 42
25 27 29 29 31 30 30 29 29 27 26 25 25 25 26 27 27 25 27 28 29 30 31 32 34 33 35 34 35 34 36 38 43 42 42 42 41 40
28 28 30 29 29 28 28 27 28 28 26 25 25 26 26 23 24 25 25 26 28 28 29 32 34 34 32 33 36 37 37 36 40 41 41 41 41 40
27 27 26 26 25 26 26 27 28 26 25 25 25 25 26 25 26 25 25 25 26 28 28 28 32 34 35 35 34 37 38 38 39 40 38 38 39 39
25 25 23 25 26 26 26 26 26 26 25 25 24 23 23 24 24 23 25 23 23 24 26 29 30 32 32 33 37 35 37 38 37 39 38 37 36 37
19 20 21 22 22 23 23 25 23 24 24 22 16 17 21 22 23 22 22 23 23 25 26 28 31 30 28 27 33 37 36 37 36 36 37 37 34 34
19 19 20 21 21 21 22 22 22 22 20 20 18 17 19 22 21 21 22 22 22 24 26 28 31 31 29 28 29 32 35 37 36 36 35 33 34 36
18 18 19 20 22 23 22 21 21 20 21 20 17 14 19 20 22 23 23 25 25 24 24 25 28 32 34 33 30 29 32 34 36 36 34 33 31 30
18 19 19 19 20 19 19 20 21 21 20 18 18 18 20 21 22 23 23 23 24 24 25 27 31 32 31 30 29 30 29 32 36 37 36 34 30 28
20 21 21 20 20 20 20 20 19 19 19 19 18 19 20 22 22 23 23 24 25 26 27 28 30 31 30 30 30 28 29 30 31 30 31 35 34 33

GFSNE_sfc_dewp_123.txt.gz
Dewpoint
43 44 45 47 45 44 45 46 46 44 45 49 50 45 45 46 46 49 49 50 53 55 55 57 57 57 58 60 60 61 61 61 62 62 62 62 64 64
39 39 40 44 40 40 44 44 44 43 43 43 43 42 43 41 44 45 45 50 52 52 52 53 54 56 57 58 59 60 60 60 61 62 63 63 63 64
34 36 37 38 38 38 41 40 40 41 39 40 40 40 39 40 41 42 45 46 48 47 47 49 53 54 55 57 58 58 59 60 60 62 62 62 63 63
31 33 33 30 33 35 39 36 37 38 37 35 37 37 37 39 40 40 39 40 42 40 41 50 51 52 53 53 55 57 57 58 58 59 60 61 61 62
31 31 31 31 31 33 33 35 35 35 36 35 33 35 35 36 34 35 34 35 35 36 36 46 47 46 48 51 53 54 55 56 56 57 58 59 60 61
30 31 31 31 32 31 34 32 32 31 32 31 32 32 33 33 33 31 30 33 32 31 40 36 37 38 39 46 49 50 51 52 54 56 56 56 56 58
29 29 30 31 32 32 32 31 30 29 30 30 29 30 29 29 29 30 30 31 30 37 33 33 35 36 38 40 43 47 49 50 52 53 55 55 55 56
28 28 29 29 30 31 32 31 29 27 28 27 28 27 27 28 30 31 30 28 27 34 31 32 35 35 37 42 44 45 47 48 50 51 52 53 54 54
28 28 27 26 30 28 31 32 32 31 30 28 27 27 27 28 29 28 28 29 29 31 31 30 33 33 35 38 40 43 43 43 46 48 50 51 52 52
28 28 27 27 29 30 29 28 29 29 29 29 29 29 30 30 31 30 30 30 29 30 32 27 30 31 33 34 36 42 44 45 47 48 49 50 50 51
26 27 28 28 30 30 28 28 28 28 30 32 33 33 33 34 30 29 27 26 24 25 28 29 28 26 27 30 38 37 39 39 42 45 49 50 50 50
25 28 28 26 28 28 27 27 29 30 29 30 31 30 32 28 30 28 27 26 25 23 27 25 25 28 25 30 31 31 35 35 39 40 43 49 49 48
25 25 25 28 29 29 30 28 29 29 30 32 31 29 29 27 26 27 28 26 24 25 27 25 24 26 26 26 28 28 31 34 34 36 38 44 49 48
25 25 26 29 30 28 28 29 29 28 27 26 26 25 25 25 25 24 26 26 27 27 28 27 25 25 25 26 25 26 28 30 33 35 39 42 48 48
27 27 28 29 29 28 28 27 27 26 25 25 25 25 25 24 25 24 25 26 25 26 27 27 26 27 28 27 27 28 27 28 30 31 34 37 41 41
28 27 29 28 26 25 24 26 26 27 26 27 27 28 28 23 23 24 22 24 24 24 25 26 26 26 26 28 27 27 28 28 29 30 31 34 39 42
27 28 24 21 20 21 23 24 26 26 26 26 25 24 23 23 24 24 22 22 22 21 21 22 24 25 27 26 26 26 27 28 30 31 31 32 35 40
25 21 19 19 20 20 21 22 23 22 22 24 23 22 22 21 21 21 22 22 21 20 20 21 20 24 24 24 28 27 27 27 29 31 31 30 31 37
20 19 19 19 19 20 20 20 20 21 23 21 20 17 18 18 20 20 21 21 19 19 21 21 19 20 19 18 22 28 28 29 29 30 30 31 32 33
20 19 19 19 20 20 20 20 21 21 20 20 18 17 14 17 17 17 18 18 18 19 19 19 19 20 21 20 21 23 28 29 29 30 30 32 33 35
18 19 20 20 20 20 20 20 20 20 20 20 19 18 17 15 16 16 18 20 21 21 20 19 19 24 25 27 24 22 24 31 32 30 31 32 32 33
19 19 20 21 22 22 21 21 20 20 19 19 18 18 16 15 15 16 17 16 17 18 19 20 22 22 23 23 22 22 23 28 31 33 33 33 33 31
20 21 21 22 22 23 22 22 21 20 20 20 19 19 18 16 17 17 17 18 19 18 18 18 19 20 21 23 24 24 26 26 28 30 31 33 34 35